PAL102 RPLL-KLAX

Flight info

Callsign PAL102
Flight time 12h 15m
Altitude 31000
Route JOM2P JOM A590 MDE V75 CANAI DCT UKATA/N0495F330 DCT 35N160E 36N170E 38N180E/N0482F350 41N170W 41N160W 41N150W 40N140W/N0477F370 38N130W DCT ALLBE DCT PIRAT DCT BURGL BAYST1
Aircraft B77W/H-SDE1E2E3FGHIJ2J3J4J5M1RWXY/LB1D1

Departure

Time 2026-04-23 13:38
Airport Ninoy Aquino International Airport (RPLL)

Arrival

Time 2026-04-24 01:54
Airport Los Angeles International Airport (KLAX)
Time Latitude Longitude Altitude Speed Heading
2026-04-23 13:12 14.50580 121.00703 46 ft 0 kts 239°
2026-04-23 13:24 14.50579 121.00700 46 ft 0 kts 239°
2026-04-23 13:24 14.50585 121.00711 46 ft 1 kts 238°
2026-04-23 13:24 14.50591 121.00719 46 ft 2 kts 229°
2026-04-23 13:25 14.50602 121.00729 46 ft 2 kts 199°
2026-04-23 13:25 14.50617 121.00732 46 ft 2 kts 175°
2026-04-23 13:25 14.50632 121.00728 46 ft 2 kts 151°
2026-04-23 13:25 14.50643 121.00719 46 ft 2 kts 127°
2026-04-23 13:26 14.50648 121.00711 46 ft 0 kts 112°
2026-04-23 13:26 14.50650 121.00707 46 ft 0 kts 112°
2026-04-23 13:27 14.50647 121.00713 46 ft 3 kts 113°
2026-04-23 13:27 14.50623 121.00751 46 ft 7 kts 131°
2026-04-23 13:28 14.50584 121.00784 46 ft 5 kts 150°
2026-04-23 13:28 14.50566 121.00793 46 ft 0 kts 153°
2026-04-23 13:32 14.50563 121.00795 46 ft 1 kts 152°
2026-04-23 13:32 14.50544 121.00805 46 ft 4 kts 152°
2026-04-23 13:32 14.50508 121.00823 45 ft 6 kts 164°
2026-04-23 13:33 14.50455 121.00821 45 ft 9 kts 187°
2026-04-23 13:33 14.50392 121.00796 44 ft 9 kts 215°
2026-04-23 13:33 14.50351 121.00745 44 ft 10 kts 240°
2026-04-23 13:33 14.50310 121.00673 43 ft 12 kts 240°
2026-04-23 13:34 14.50263 121.00589 42 ft 14 kts 241°
2026-04-23 13:34 14.50211 121.00494 42 ft 15 kts 240°
2026-04-23 13:34 14.50156 121.00394 41 ft 15 kts 240°
2026-04-23 13:34 14.50121 121.00332 41 ft 14 kts 240°
2026-04-23 13:35 14.50059 121.00221 40 ft 13 kts 240°
2026-04-23 13:35 14.50029 121.00167 39 ft 13 kts 241°
2026-04-23 13:35 14.50014 121.00139 39 ft 13 kts 241°
2026-04-23 13:36 14.49803 121.00013 37 ft 6 kts 126°
2026-04-23 13:36 14.49802 121.00040 37 ft 2 kts 64°
2026-04-23 13:36 14.49804 121.00046 37 ft 0 kts 61°
2026-04-23 13:37 14.49813 121.00062 37 ft 10 kts 61°
2026-04-23 13:37 14.49957 121.00326 40 ft 74 kts 60°
2026-04-23 13:37 14.50318 121.00974 45 ft 133 kts 59°
2026-04-23 13:38 14.50869 121.01968 65 ft 184 kts 62°
2026-04-23 13:38 14.51525 121.03187 429 ft 198 kts 62°
2026-04-23 13:38 14.52210 121.04407 1147 ft 201 kts 62°
2026-04-23 13:38 14.52926 121.05675 1595 ft 208 kts 62°
2026-04-23 13:39 14.53653 121.06982 2034 ft 212 kts 62°
2026-04-23 13:39 14.54387 121.08304 2576 ft 213 kts 62°
2026-04-23 13:39 14.55144 121.09608 3046 ft 216 kts 60°
2026-04-23 13:39 14.55891 121.11006 3388 ft 228 kts 74°
2026-04-23 13:40 14.56165 121.12674 3592 ft 245 kts 86°
2026-04-23 13:40 14.56267 121.13975 3830 ft 257 kts 87°
2026-04-23 13:40 14.56396 121.15918 4299 ft 269 kts 87°
2026-04-23 13:40 14.56516 121.17862 4949 ft 273 kts 87°
2026-04-23 13:41 14.56628 121.19830 5606 ft 276 kts 87°
2026-04-23 13:41 14.56727 121.21798 6283 ft 278 kts 87°
2026-04-23 13:41 14.56819 121.23785 6924 ft 281 kts 87°
2026-04-23 13:41 14.56999 121.25784 7585 ft 283 kts 83°
2026-04-23 13:42 14.57252 121.27799 8190 ft 287 kts 82°
2026-04-23 13:42 14.57516 121.29858 8811 ft 289 kts 82°
2026-04-23 13:42 14.57778 121.31908 9435 ft 291 kts 82°
2026-04-23 13:42 14.58041 121.33962 10019 ft 294 kts 82°
2026-04-23 13:43 14.58313 121.36095 10371 ft 307 kts 82°
2026-04-23 13:43 14.58599 121.38332 10612 ft 323 kts 82°
2026-04-23 13:43 14.58898 121.40678 10873 ft 339 kts 82°
2026-04-23 13:43 14.59214 121.43151 11158 ft 355 kts 82°
2026-04-23 13:44 14.59544 121.45741 11438 ft 370 kts 82°
2026-04-23 13:44 14.59883 121.48403 11771 ft 383 kts 82°
2026-04-23 13:44 14.60234 121.51163 12303 ft 389 kts 82°
2026-04-23 13:44 14.60586 121.53934 12908 ft 392 kts 82°
2026-04-23 13:45 14.60824 121.55805 13293 ft 395 kts 82°
2026-04-23 13:45 14.61302 121.59578 14031 ft 401 kts 82°
2026-04-23 13:45 14.61674 121.62513 14590 ft 405 kts 82°
2026-04-23 13:45 14.62047 121.65459 15137 ft 409 kts 82°
2026-04-23 13:46 14.62418 121.68396 15663 ft 413 kts 82°
2026-04-23 13:46 14.62786 121.71312 16167 ft 417 kts 82°
2026-04-23 13:46 14.63165 121.74313 16660 ft 421 kts 82°
2026-04-23 13:46 14.63541 121.77293 17142 ft 425 kts 82°
2026-04-23 13:47 14.63926 121.80354 17646 ft 428 kts 82°
2026-04-23 13:47 14.64311 121.83417 18123 ft 432 kts 82°
2026-04-23 13:47 14.64701 121.86516 18594 ft 435 kts 82°
2026-04-23 13:47 14.65090 121.89618 19040 ft 439 kts 82°
2026-04-23 13:48 14.65493 121.92834 19499 ft 443 kts 82°
2026-04-23 13:48 14.65895 121.96049 19945 ft 447 kts 82°
2026-04-23 13:48 14.66295 121.99245 20407 ft 449 kts 82°
2026-04-23 13:48 14.66698 122.02474 20832 ft 453 kts 82°
2026-04-23 13:49 14.67098 122.05675 21234 ft 456 kts 82°
2026-04-23 13:49 14.67507 122.08959 21639 ft 460 kts 82°
2026-04-23 13:49 14.67915 122.12238 22038 ft 463 kts 82°
2026-04-23 13:49 14.68325 122.15533 22437 ft 466 kts 82°
2026-04-23 13:50 14.68736 122.18850 22886 ft 468 kts 82°
2026-04-23 13:50 14.69147 122.22164 23349 ft 469 kts 82°
2026-04-23 13:50 14.69611 122.25510 23787 ft 471 kts 78°
2026-04-23 13:50 14.70496 122.28762 24181 ft 473 kts 69°
2026-04-23 13:51 14.71866 122.31829 24539 ft 475 kts 60°
2026-04-23 13:51 14.73719 122.34677 24943 ft 477 kts 51°
2026-04-23 13:51 14.75983 122.37190 25353 ft 478 kts 41°
2026-04-23 13:51 14.78549 122.39333 25734 ft 480 kts 37°
2026-04-23 13:52 14.81232 122.41397 26139 ft 482 kts 36°
2026-04-23 13:52 14.83945 122.43478 26547 ft 485 kts 37°
2026-04-23 13:52 14.86653 122.45561 26943 ft 487 kts 37°
2026-04-23 13:52 14.89375 122.47660 27309 ft 490 kts 37°
2026-04-23 13:53 14.92116 122.49778 27711 ft 492 kts 37°
2026-04-23 13:53 14.94869 122.51907 28113 ft 493 kts 37°
2026-04-23 13:53 14.97600 122.54022 28507 ft 495 kts 37°
2026-04-23 13:53 15.00388 122.56184 28889 ft 497 kts 37°
2026-04-23 13:54 15.03157 122.58332 29287 ft 498 kts 37°
2026-04-23 13:54 15.05913 122.60472 29824 ft 496 kts 37°
2026-04-23 13:54 15.08682 122.62622 30287 ft 495 kts 37°
2026-04-23 13:54 15.11418 122.64748 30541 ft 493 kts 37°
2026-04-23 13:55 15.14188 122.66902 30797 ft 490 kts 37°
2026-04-23 13:55 15.16896 122.69008 30913 ft 492 kts 38°
2026-04-23 13:55 15.19651 122.71151 30911 ft 491 kts 38°
2026-04-23 13:56 15.25107 122.75398 30911 ft 490 kts 38°
2026-04-23 13:56 15.30575 122.79659 30912 ft 498 kts 38°
2026-04-23 13:57 15.36179 122.84028 30910 ft 501 kts 37°
2026-04-23 13:57 15.41762 122.88384 30911 ft 500 kts 37°
2026-04-23 13:58 15.47323 122.92725 30910 ft 501 kts 37°
2026-04-23 13:58 15.52879 122.97066 30910 ft 502 kts 37°
2026-04-23 13:59 15.58447 123.01417 30909 ft 501 kts 37°
2026-04-23 13:59 15.64053 123.05804 30910 ft 500 kts 37°
2026-04-23 14:00 15.68683 123.09428 30910 ft 500 kts 37°
2026-04-23 14:00 15.75270 123.14589 30907 ft 500 kts 37°
2026-04-23 14:01 15.80885 123.18991 30916 ft 501 kts 37°
2026-04-23 14:01 15.86506 123.23402 30924 ft 501 kts 37°
2026-04-23 14:02 15.92074 123.27773 30928 ft 502 kts 37°
2026-04-23 14:02 15.97787 123.32259 30929 ft 501 kts 37°
2026-04-23 14:03 16.03472 123.36730 30930 ft 502 kts 37°
2026-04-23 14:03 16.09158 123.41206 30929 ft 502 kts 37°
2026-04-23 14:04 16.14751 123.45610 30928 ft 501 kts 37°
2026-04-23 14:04 16.20315 123.49995 30930 ft 502 kts 37°
2026-04-23 14:05 16.25891 123.54392 30925 ft 502 kts 37°
2026-04-23 14:05 16.31445 123.58776 30915 ft 502 kts 37°
2026-04-23 14:06 16.37008 123.63169 30913 ft 502 kts 37°
2026-04-23 14:06 16.42608 123.67595 30915 ft 502 kts 37°
2026-04-23 14:07 16.48172 123.71995 30914 ft 502 kts 37°
2026-04-23 14:07 16.56536 123.78617 30910 ft 502 kts 37°
2026-04-23 14:08 16.62091 123.83019 30909 ft 501 kts 37°
2026-04-23 14:08 16.67622 123.87405 30910 ft 501 kts 37°
2026-04-23 14:09 16.73211 123.91840 30910 ft 502 kts 37°
2026-04-23 14:09 16.78759 123.96246 30910 ft 502 kts 37°
2026-04-23 14:10 16.84313 124.00661 30909 ft 501 kts 37°
2026-04-23 14:10 16.89890 124.05096 30910 ft 501 kts 37°
2026-04-23 14:11 16.95455 124.09525 30910 ft 502 kts 37°
2026-04-23 14:11 17.00986 124.13930 30910 ft 502 kts 37°
2026-04-23 14:12 17.06558 124.18373 30913 ft 501 kts 37°
2026-04-23 14:12 17.12080 124.22778 30916 ft 501 kts 37°
2026-04-23 14:13 17.17636 124.27215 30918 ft 502 kts 37°
2026-04-23 14:13 17.23184 124.31647 30919 ft 502 kts 37°
2026-04-23 14:14 17.28729 124.36082 30920 ft 501 kts 37°
2026-04-23 14:14 17.34263 124.40511 30918 ft 501 kts 37°
2026-04-23 14:15 17.39819 124.44960 30920 ft 501 kts 37°
2026-04-23 14:15 17.45349 124.49393 30921 ft 501 kts 37°
2026-04-23 14:16 17.50891 124.53840 30926 ft 500 kts 37°
2026-04-23 14:16 17.56423 124.58282 30930 ft 501 kts 37°
2026-04-23 14:17 17.61986 124.62752 30930 ft 501 kts 37°
2026-04-23 14:17 17.67499 124.67184 30930 ft 501 kts 37°
2026-04-23 14:18 17.73129 124.71716 30928 ft 500 kts 37°
2026-04-23 14:18 17.78683 124.76189 30929 ft 500 kts 37°
2026-04-23 14:19 17.84239 124.80669 30931 ft 500 kts 37°
2026-04-23 14:19 17.89792 124.85148 30929 ft 500 kts 37°
2026-04-23 14:20 17.95373 124.89655 30930 ft 501 kts 37°
2026-04-23 14:20 18.00903 124.94123 30929 ft 501 kts 37°
2026-04-23 14:21 18.06477 124.98631 30930 ft 500 kts 37°
2026-04-23 14:21 18.12091 125.03175 30932 ft 500 kts 37°
2026-04-23 14:22 18.17646 125.07675 30931 ft 501 kts 37°
2026-04-23 14:22 18.23254 125.12221 30931 ft 501 kts 37°
2026-04-23 14:23 18.28901 125.16805 30930 ft 501 kts 37°
2026-04-23 14:23 18.34435 125.21298 30931 ft 502 kts 37°
2026-04-23 14:24 18.40009 125.25829 30931 ft 502 kts 37°
2026-04-23 14:24 18.45536 125.30325 30931 ft 502 kts 37°
2026-04-23 14:25 18.51164 125.34907 30931 ft 502 kts 37°
2026-04-23 14:25 18.56764 125.39471 30930 ft 502 kts 37°
2026-04-23 14:26 18.62348 125.44025 30931 ft 502 kts 37°
2026-04-23 14:26 18.67866 125.48528 30931 ft 501 kts 37°
2026-04-23 14:27 18.73433 125.53076 30930 ft 503 kts 38°
2026-04-23 14:27 18.79019 125.57644 30931 ft 502 kts 37°
2026-04-23 14:28 18.84580 125.62194 30931 ft 503 kts 37°
2026-04-23 14:28 18.90138 125.66780 30931 ft 503 kts 38°
2026-04-23 14:29 18.95745 125.71365 30930 ft 502 kts 37°
2026-04-23 14:29 19.01360 125.75962 30934 ft 502 kts 38°
2026-04-23 14:30 19.06947 125.80544 30942 ft 504 kts 38°
2026-04-23 14:30 19.12592 125.85181 30946 ft 503 kts 38°
2026-04-23 14:31 19.18127 125.89733 30949 ft 503 kts 38°
2026-04-23 14:31 19.23741 125.94354 30951 ft 503 kts 38°
2026-04-23 14:32 19.29315 125.98947 30952 ft 503 kts 38°
2026-04-23 14:32 19.34927 126.03576 30950 ft 503 kts 38°
2026-04-23 14:33 19.40545 126.08214 30951 ft 507 kts 38°
2026-04-23 14:33 19.46164 126.12857 30951 ft 507 kts 38°
2026-04-23 14:34 19.51744 126.17472 30951 ft 507 kts 38°
2026-04-23 14:34 19.57347 126.22111 30949 ft 510 kts 38°
2026-04-23 14:35 19.63009 126.26801 30943 ft 509 kts 37°
2026-04-23 14:35 19.68654 126.31483 30941 ft 510 kts 37°
2026-04-23 14:36 19.74289 126.36160 30935 ft 509 kts 38°
2026-04-23 14:36 19.79926 126.40844 30935 ft 511 kts 38°
2026-04-23 14:37 19.85606 126.45567 30937 ft 510 kts 38°
2026-04-23 14:37 19.91187 126.50213 30934 ft 509 kts 38°
2026-04-23 14:38 19.96882 126.54958 30932 ft 510 kts 38°
2026-04-23 14:38 20.02513 126.59654 30934 ft 511 kts 38°
2026-04-23 14:39 20.08187 126.64391 30931 ft 509 kts 37°
2026-04-23 14:39 20.13839 126.69112 30935 ft 510 kts 38°
2026-04-23 14:40 20.19471 126.73823 30932 ft 511 kts 38°
2026-04-23 14:40 20.25116 126.78548 30930 ft 512 kts 38°
2026-04-23 14:41 20.30808 126.83318 30935 ft 513 kts 38°
2026-04-23 14:41 20.36486 126.88079 30928 ft 513 kts 38°
2026-04-23 14:42 20.42138 126.92825 30932 ft 512 kts 38°
2026-04-23 14:42 20.47810 126.97591 30933 ft 512 kts 37°
2026-04-23 14:43 20.53491 127.02370 30930 ft 512 kts 38°
2026-04-23 14:43 20.59181 127.07161 30932 ft 514 kts 37°
2026-04-23 14:44 20.64798 127.11895 30931 ft 512 kts 37°
2026-04-23 14:44 20.70446 127.16659 30930 ft 515 kts 37°
2026-04-23 14:45 20.76093 127.21428 30930 ft 515 kts 37°
2026-04-23 14:45 20.81768 127.26224 30935 ft 515 kts 37°
2026-04-23 14:46 20.87470 127.31049 30934 ft 514 kts 37°
2026-04-23 14:46 20.93133 127.35844 30934 ft 515 kts 37°
2026-04-23 14:47 20.98750 127.40607 30931 ft 514 kts 37°
2026-04-23 14:47 21.04519 127.45390 30941 ft 516 kts 36°
2026-04-23 14:48 21.10239 127.50047 30952 ft 517 kts 36°
2026-04-23 14:48 21.15996 127.54744 30951 ft 515 kts 36°
2026-04-23 14:49 21.21787 127.59477 30952 ft 518 kts 36°
2026-04-23 14:49 21.27531 127.64181 30949 ft 515 kts 36°
2026-04-23 14:50 21.33297 127.68906 30941 ft 517 kts 36°
2026-04-23 14:50 21.39047 127.73626 30939 ft 516 kts 36°
2026-04-23 14:51 21.44755 127.78315 30941 ft 518 kts 36°
2026-04-23 14:51 21.50512 127.83051 30939 ft 518 kts 36°
2026-04-23 14:52 21.56306 127.87820 30938 ft 518 kts 36°
2026-04-23 14:52 21.62071 127.92572 30939 ft 518 kts 36°
2026-04-23 14:53 21.67925 127.97401 30937 ft 518 kts 36°
2026-04-23 14:53 21.73669 128.02145 30936 ft 519 kts 36°
2026-04-23 14:54 21.79417 128.06897 30935 ft 520 kts 36°
2026-04-23 14:54 21.85250 128.11725 30936 ft 518 kts 36°
2026-04-23 14:55 21.91059 128.16539 30934 ft 520 kts 36°
2026-04-23 14:55 21.96818 128.21315 30933 ft 519 kts 36°
2026-04-23 14:56 22.02562 128.26083 30931 ft 520 kts 36°
2026-04-23 14:56 22.08415 128.30948 30936 ft 522 kts 35°
2026-04-23 14:57 22.14151 128.35721 30935 ft 519 kts 35°
2026-04-23 14:57 22.19963 128.40561 30933 ft 521 kts 36°
2026-04-23 14:58 22.25765 128.45399 30932 ft 522 kts 36°
2026-04-23 14:58 22.31525 128.50207 30931 ft 521 kts 35°
2026-04-23 14:59 22.37304 128.55035 30933 ft 522 kts 35°
2026-04-23 14:59 22.43146 128.59923 30930 ft 521 kts 35°
2026-04-23 15:00 22.48943 128.64777 30935 ft 523 kts 35°
2026-04-23 15:00 22.54705 128.69608 30925 ft 522 kts 36°
2026-04-23 15:01 22.60538 128.74503 30924 ft 523 kts 36°
2026-04-23 15:01 22.66310 128.79352 30928 ft 523 kts 36°
2026-04-23 15:02 22.72084 128.84207 30927 ft 524 kts 36°
2026-04-23 15:02 22.77882 128.89090 30933 ft 525 kts 36°
2026-04-23 15:03 22.83667 128.93965 30936 ft 526 kts 35°
2026-04-23 15:03 22.89482 128.98872 30935 ft 527 kts 36°
2026-04-23 15:04 22.95252 129.03748 30932 ft 526 kts 36°
2026-04-23 15:04 23.01108 129.08699 30935 ft 526 kts 35°
2026-04-23 15:05 23.07114 129.13303 30940 ft 525 kts 32°
2026-04-23 15:05 23.13201 129.17892 30933 ft 524 kts 32°
2026-04-23 15:06 23.19207 129.22444 30938 ft 525 kts 32°
2026-04-23 15:06 23.25224 129.27020 30933 ft 524 kts 32°
2026-04-23 15:07 23.31230 129.31599 30928 ft 524 kts 32°
2026-04-23 15:07 23.37226 129.36179 30928 ft 524 kts 32°
2026-04-23 15:08 23.43220 129.40762 30925 ft 524 kts 32°
2026-04-23 15:09 23.52251 129.47681 30924 ft 526 kts 32°
2026-04-23 15:09 23.58300 129.52322 30926 ft 525 kts 32°
2026-04-23 15:10 23.63295 129.56160 30924 ft 526 kts 32°
2026-04-23 15:10 23.70324 129.61566 30921 ft 525 kts 32°
2026-04-23 15:11 23.76316 129.66179 30916 ft 526 kts 32°
2026-04-23 15:11 23.82326 129.70815 30912 ft 526 kts 32°
2026-04-23 15:12 23.88364 129.75473 30910 ft 528 kts 32°
2026-04-23 15:12 23.94372 129.80116 30917 ft 529 kts 32°
2026-04-23 15:13 24.00386 129.84769 30925 ft 530 kts 32°
2026-04-23 15:13 24.06400 129.89427 30929 ft 530 kts 32°
2026-04-23 15:14 24.12412 129.94089 30926 ft 530 kts 32°
2026-04-23 15:14 24.18421 129.98755 30928 ft 529 kts 32°
2026-04-23 15:15 24.24433 130.03427 30924 ft 529 kts 32°
2026-04-23 15:15 24.30435 130.08099 30927 ft 528 kts 32°
2026-04-23 15:16 24.36414 130.12755 30923 ft 529 kts 31°
2026-04-23 15:16 24.42496 130.17333 30924 ft 529 kts 31°
2026-04-23 15:17 24.48591 130.21907 30926 ft 527 kts 31°
2026-04-23 15:17 24.54659 130.26472 30925 ft 531 kts 31°
2026-04-23 15:18 24.60729 130.31047 30924 ft 530 kts 31°
2026-04-23 15:18 24.66782 130.35617 30922 ft 529 kts 31°
2026-04-23 15:19 24.72836 130.40195 30923 ft 529 kts 31°
2026-04-23 15:19 24.78925 130.44803 30921 ft 530 kts 31°
2026-04-23 15:20 24.83994 130.48645 30922 ft 531 kts 31°
2026-04-23 15:20 24.91080 130.54022 30913 ft 530 kts 31°
2026-04-23 15:21 24.97116 130.58609 30901 ft 532 kts 31°
2026-04-23 15:21 25.03218 130.63251 30903 ft 530 kts 31°
2026-04-23 15:22 25.09258 130.67853 30899 ft 530 kts 31°
2026-04-23 15:22 25.15361 130.72505 30895 ft 532 kts 31°
2026-04-23 15:23 25.21442 130.77150 30892 ft 532 kts 31°
2026-04-23 15:23 25.27515 130.81793 30892 ft 533 kts 31°
2026-04-23 15:24 25.33612 130.86461 30891 ft 531 kts 32°
2026-04-23 15:24 25.39704 130.91130 30892 ft 531 kts 32°
2026-04-23 15:25 25.45784 130.95795 30893 ft 533 kts 32°
2026-04-23 15:25 25.51911 131.00502 30895 ft 534 kts 32°
2026-04-23 15:26 25.58022 131.05205 30896 ft 534 kts 31°
2026-04-23 15:26 25.64102 131.09889 30899 ft 534 kts 31°
2026-04-23 15:27 25.70184 131.14580 30899 ft 533 kts 31°
2026-04-23 15:27 25.76317 131.19316 30899 ft 535 kts 31°
2026-04-23 15:28 25.82127 131.24431 30903 ft 539 kts 43°
2026-04-23 15:28 25.86583 131.31142 30900 ft 548 kts 60°
2026-04-23 15:29 25.89505 131.38945 30906 ft 548 kts 69°
2026-04-23 15:29 25.92131 131.46881 30908 ft 547 kts 69°
2026-04-23 15:30 25.94727 131.54785 30903 ft 549 kts 69°
2026-04-23 15:30 25.97327 131.62738 30902 ft 546 kts 69°
2026-04-23 15:31 25.99895 131.70622 30888 ft 548 kts 70°
2026-04-23 15:31 26.02481 131.78583 30890 ft 546 kts 70°
2026-04-23 15:32 26.05053 131.86522 30887 ft 548 kts 70°
2026-04-23 15:32 26.07614 131.94446 30887 ft 546 kts 70°
2026-04-23 15:33 26.10179 132.02403 30885 ft 548 kts 69°
2026-04-23 15:33 26.12745 132.10378 30899 ft 544 kts 70°
2026-04-23 15:34 26.15288 132.18301 30904 ft 547 kts 70°
2026-04-23 15:34 26.17842 132.26273 30904 ft 547 kts 69°
2026-04-23 15:35 26.20377 132.34206 30912 ft 546 kts 69°
2026-04-23 15:35 26.22934 132.42224 30906 ft 550 kts 69°
2026-04-23 15:36 26.25463 132.50171 30906 ft 547 kts 69°
2026-04-23 15:36 26.28017 132.58214 30900 ft 549 kts 69°
2026-04-23 15:37 26.30534 132.66157 30894 ft 548 kts 70°
2026-04-23 15:37 26.32657 132.72871 30892 ft 550 kts 70°
2026-04-23 15:38 26.35599 132.82196 30900 ft 549 kts 70°
2026-04-23 15:38 26.38124 132.90218 30888 ft 550 kts 70°
2026-04-23 15:39 26.40642 132.98236 30879 ft 549 kts 70°
2026-04-23 15:39 26.43166 133.06291 30880 ft 551 kts 69°
2026-04-23 15:40 26.45668 133.14294 30885 ft 547 kts 69°
2026-04-23 15:40 26.48180 133.22342 30883 ft 551 kts 69°
2026-04-23 15:41 26.50679 133.30374 30892 ft 548 kts 69°
2026-04-23 15:41 26.53172 133.38399 30888 ft 552 kts 69°
2026-04-23 15:42 26.55675 133.46474 30884 ft 550 kts 69°
2026-04-23 15:42 26.58169 133.54541 30889 ft 553 kts 69°
2026-04-23 15:43 26.60660 133.62616 30889 ft 553 kts 69°
2026-04-23 15:43 26.63175 133.70785 30877 ft 552 kts 69°
2026-04-23 15:44 26.65675 133.78926 30879 ft 553 kts 69°
2026-04-23 15:44 26.68165 133.87056 30885 ft 553 kts 69°
2026-04-23 15:45 26.70652 133.95190 30892 ft 552 kts 69°
2026-04-23 15:45 26.73262 134.03340 30895 ft 549 kts 63°
2026-04-23 15:46 26.77053 134.10768 30894 ft 546 kts 55°
2026-04-23 15:46 26.81068 134.17969 30896 ft 548 kts 54°
2026-04-23 15:47 26.85085 134.25191 30897 ft 546 kts 54°
2026-04-23 15:47 26.89133 134.32486 30895 ft 548 kts 54°
2026-04-23 15:48 26.93168 134.39774 30898 ft 548 kts 54°
2026-04-23 15:48 26.97178 134.47029 30897 ft 548 kts 54°
2026-04-23 15:49 27.01201 134.54324 30898 ft 545 kts 54°
2026-04-23 15:49 27.05204 134.61592 30897 ft 546 kts 54°
2026-04-23 15:50 27.09243 134.68939 30877 ft 548 kts 54°
2026-04-23 15:50 27.13237 134.76218 30885 ft 547 kts 54°
2026-04-23 15:51 27.17254 134.83550 30880 ft 551 kts 54°
2026-04-23 15:51 27.21249 134.90855 30885 ft 547 kts 54°
2026-04-23 15:52 27.25272 134.98221 30882 ft 547 kts 54°
2026-04-23 15:52 27.29252 135.05524 30893 ft 549 kts 54°
2026-04-23 15:53 27.33220 135.12814 30891 ft 547 kts 54°
2026-04-23 15:53 27.37246 135.20226 30892 ft 550 kts 54°
2026-04-23 15:54 27.41230 135.27573 30886 ft 546 kts 54°
2026-04-23 15:54 27.45190 135.34886 30893 ft 547 kts 54°
2026-04-23 15:55 27.49171 135.42248 30883 ft 549 kts 54°
2026-04-23 15:55 27.53149 135.49622 30888 ft 549 kts 54°
2026-04-23 15:56 27.57105 135.56966 30880 ft 547 kts 54°
2026-04-23 15:56 27.61063 135.64325 30884 ft 547 kts 54°
2026-04-23 15:57 27.65051 135.71751 30872 ft 547 kts 54°
2026-04-23 15:57 27.68988 135.79099 30872 ft 549 kts 54°
2026-04-23 15:58 27.72931 135.86467 30877 ft 548 kts 54°
2026-04-23 15:58 27.76881 135.93864 30873 ft 546 kts 54°
2026-04-23 15:59 27.80835 136.01279 30868 ft 548 kts 54°
2026-04-23 15:59 27.84787 136.08704 30872 ft 546 kts 54°
2026-04-23 16:00 27.88685 136.16040 30880 ft 546 kts 54°
2026-04-23 16:00 27.92618 136.23454 30875 ft 545 kts 55°
2026-04-23 16:01 27.96504 136.30792 30880 ft 547 kts 55°
2026-04-23 16:01 28.00416 136.38193 30884 ft 546 kts 55°
2026-04-23 16:02 28.04352 136.45651 30867 ft 548 kts 55°
2026-04-23 16:02 28.08273 136.53095 30872 ft 547 kts 55°
2026-04-23 16:03 28.12210 136.60582 30885 ft 547 kts 55°
2026-04-23 16:03 28.16101 136.67995 30866 ft 546 kts 56°
2026-04-23 16:04 28.19978 136.75394 30868 ft 547 kts 55°
2026-04-23 16:04 28.23881 136.82857 30870 ft 548 kts 56°
2026-04-23 16:05 28.27155 136.89127 30878 ft 544 kts 56°
2026-04-23 16:05 28.31648 136.97742 30877 ft 549 kts 56°
2026-04-23 16:06 28.35559 137.05261 30875 ft 544 kts 56°
2026-04-23 16:06 28.39417 137.12688 30874 ft 550 kts 56°
2026-04-23 16:07 28.43335 137.20245 30870 ft 547 kts 56°
2026-04-23 16:07 28.47198 137.27710 30877 ft 548 kts 55°
2026-04-23 16:08 28.51074 137.35211 30883 ft 550 kts 56°
2026-04-23 16:08 28.54949 137.42726 30881 ft 552 kts 56°
2026-04-23 16:09 28.58845 137.50296 30878 ft 550 kts 56°
2026-04-23 16:09 28.62738 137.57873 30870 ft 548 kts 56°
2026-04-23 16:10 28.66602 137.65408 30873 ft 551 kts 56°
2026-04-23 16:10 28.70459 137.72943 30867 ft 549 kts 56°
2026-04-23 16:11 28.74356 137.80566 30868 ft 551 kts 57°
2026-04-23 16:11 28.78220 137.88144 30867 ft 551 kts 56°
2026-04-23 16:12 28.82054 137.95673 30871 ft 552 kts 56°
2026-04-23 16:12 28.85944 138.03330 30871 ft 552 kts 56°
2026-04-23 16:13 28.89809 138.10948 30873 ft 552 kts 56°
2026-04-23 16:13 28.95578 138.22348 30872 ft 553 kts 56°
2026-04-23 16:14 28.99440 138.29996 30875 ft 553 kts 56°
2026-04-23 16:14 29.03328 138.37711 30882 ft 553 kts 56°
2026-04-23 16:15 29.07162 138.45334 30872 ft 553 kts 57°
2026-04-23 16:15 29.10984 138.52946 30867 ft 555 kts 57°
2026-04-23 16:16 29.14865 138.60692 30865 ft 552 kts 57°
2026-04-23 16:16 29.18700 138.68359 30855 ft 552 kts 57°
2026-04-23 16:17 29.22499 138.75967 30857 ft 552 kts 58°
2026-04-23 16:17 29.26346 138.83688 30863 ft 553 kts 58°
2026-04-23 16:18 29.30173 138.91383 30863 ft 552 kts 58°
2026-04-23 16:18 29.33976 138.99045 30870 ft 553 kts 58°
2026-04-23 16:19 29.37789 139.06740 30876 ft 553 kts 58°
2026-04-23 16:19 29.41610 139.14465 30866 ft 553 kts 58°
2026-04-23 16:20 29.45406 139.22157 30868 ft 553 kts 58°
2026-04-23 16:20 29.49207 139.29874 30868 ft 555 kts 58°
2026-04-23 16:21 29.53014 139.37617 30859 ft 555 kts 58°
2026-04-23 16:21 29.56789 139.45311 30869 ft 554 kts 58°
2026-04-23 16:22 29.60559 139.53008 30864 ft 555 kts 57°
2026-04-23 16:22 29.64336 139.60731 30867 ft 557 kts 58°
2026-04-23 16:23 29.68130 139.68510 30855 ft 559 kts 58°
2026-04-23 16:23 29.71896 139.76245 30850 ft 554 kts 58°
2026-04-23 16:24 29.75659 139.83987 30852 ft 557 kts 58°
2026-04-23 16:24 29.79444 139.91788 30853 ft 558 kts 58°
2026-04-23 16:25 29.83193 139.99535 30860 ft 559 kts 58°
2026-04-23 16:25 29.86968 140.07347 30854 ft 557 kts 58°
2026-04-23 16:26 29.90736 140.15161 30864 ft 558 kts 58°
2026-04-23 16:26 29.94487 140.22955 30874 ft 557 kts 58°
2026-04-23 16:27 29.98232 140.30754 30869 ft 557 kts 58°
2026-04-23 16:27 30.01495 140.38826 30859 ft 558 kts 66°
2026-04-23 16:28 30.04402 140.47098 30866 ft 557 kts 66°
2026-04-23 16:28 30.07318 140.55460 30866 ft 559 kts 66°
2026-04-23 16:29 30.10183 140.63707 30866 ft 557 kts 66°
2026-04-23 16:29 30.13065 140.72037 30850 ft 556 kts 66°
2026-04-23 16:30 30.15915 140.80293 30858 ft 558 kts 67°
2026-04-23 16:30 30.18782 140.88626 30855 ft 557 kts 66°
2026-04-23 16:31 30.21632 140.96930 30853 ft 557 kts 67°
2026-04-23 16:31 30.24465 141.05208 30858 ft 556 kts 66°
2026-04-23 16:32 30.27313 141.13545 30857 ft 557 kts 66°
2026-04-23 16:32 30.30143 141.21855 30852 ft 556 kts 67°
2026-04-23 16:33 30.32956 141.30131 30856 ft 558 kts 67°
2026-04-23 16:33 30.35804 141.38533 30853 ft 558 kts 67°
2026-04-23 16:34 30.38613 141.46841 30861 ft 559 kts 67°
2026-04-23 16:34 30.41438 141.55217 30859 ft 557 kts 67°
2026-04-23 16:35 30.44245 141.63560 30866 ft 556 kts 67°
2026-04-23 16:35 30.47044 141.71899 30863 ft 557 kts 67°
2026-04-23 16:36 30.49853 141.80289 30858 ft 561 kts 68°
2026-04-23 16:36 30.52656 141.88683 30862 ft 558 kts 67°
2026-04-23 16:37 30.55456 141.97086 30863 ft 561 kts 68°
2026-04-23 16:37 30.58246 142.05484 30848 ft 560 kts 68°
2026-04-23 16:38 30.61052 142.13950 30862 ft 560 kts 68°
2026-04-23 16:38 30.63831 142.22353 30863 ft 559 kts 67°
2026-04-23 16:39 30.66599 142.30745 30860 ft 561 kts 68°
2026-04-23 16:39 30.69372 142.39177 30865 ft 559 kts 68°
2026-04-23 16:40 30.72150 142.47643 30860 ft 561 kts 68°
2026-04-23 16:40 30.74895 142.56027 30876 ft 561 kts 68°
2026-04-23 16:41 30.77665 142.64511 30873 ft 559 kts 68°
2026-04-23 16:41 30.80417 142.72965 30863 ft 561 kts 68°
2026-04-23 16:42 30.83192 142.81509 30860 ft 560 kts 68°
2026-04-23 16:42 30.85955 142.90039 30867 ft 561 kts 68°
2026-04-23 16:43 30.88702 142.98540 30873 ft 560 kts 68°
2026-04-23 16:43 30.91459 143.07095 30879 ft 561 kts 68°
2026-04-23 16:44 30.94203 143.15633 30872 ft 561 kts 68°
2026-04-23 16:44 30.96930 143.24138 30882 ft 562 kts 68°
2026-04-23 16:45 30.99671 143.32710 30873 ft 561 kts 68°
2026-04-23 16:45 31.02388 143.41232 30872 ft 561 kts 68°
2026-04-23 16:46 31.05116 143.49806 30871 ft 562 kts 68°
2026-04-23 16:46 31.07831 143.58366 30877 ft 562 kts 68°
2026-04-23 16:47 31.10550 143.66960 30877 ft 563 kts 69°
2026-04-23 16:47 31.13256 143.75537 30858 ft 562 kts 69°
2026-04-23 16:48 31.15965 143.84146 30865 ft 565 kts 68°
2026-04-23 16:48 31.18670 143.92763 30871 ft 564 kts 68°
2026-04-23 16:49 31.21375 144.01407 30876 ft 564 kts 69°
2026-04-23 16:49 31.24070 144.10042 30881 ft 564 kts 68°
2026-04-23 16:50 31.26758 144.18675 30885 ft 565 kts 68°
2026-04-23 16:50 31.29440 144.27313 30887 ft 566 kts 69°
2026-04-23 16:51 31.32152 144.36072 30884 ft 566 kts 68°
2026-04-23 16:51 31.34821 144.44716 30887 ft 565 kts 69°
2026-04-23 16:52 31.37502 144.53424 30889 ft 567 kts 68°
2026-04-23 16:52 31.40166 144.62102 30890 ft 564 kts 68°
2026-04-23 16:53 31.42816 144.70756 30875 ft 565 kts 69°
2026-04-23 16:53 31.45498 144.79536 30882 ft 566 kts 69°
2026-04-23 16:54 31.48130 144.88182 30883 ft 566 kts 69°
2026-04-23 16:54 31.50784 144.96922 30893 ft 565 kts 69°
2026-04-23 16:55 31.53413 145.05603 30888 ft 568 kts 69°
2026-04-23 16:55 31.56044 145.14316 30891 ft 565 kts 69°
2026-04-23 16:56 31.58684 145.23084 30888 ft 566 kts 69°
2026-04-23 16:56 31.61304 145.31808 30896 ft 566 kts 69°
2026-04-23 16:57 31.63939 145.40610 30905 ft 565 kts 69°
2026-04-23 16:57 31.66532 145.49293 30907 ft 566 kts 69°
2026-04-23 16:58 31.69127 145.58011 30916 ft 566 kts 69°
2026-04-23 16:58 31.71754 145.66858 30911 ft 567 kts 70°
2026-04-23 16:59 31.74340 145.75595 30902 ft 567 kts 69°
2026-04-23 16:59 31.76916 145.84322 30906 ft 566 kts 69°
2026-04-23 17:00 31.79504 145.93117 30911 ft 565 kts 69°
2026-04-23 17:00 31.82076 146.01880 30923 ft 565 kts 69°
2026-04-23 17:01 31.84647 146.10666 30913 ft 568 kts 69°
2026-04-23 17:01 31.87217 146.19473 30917 ft 568 kts 69°
2026-04-23 17:02 31.89780 146.28285 30911 ft 569 kts 69°
2026-04-23 17:02 31.92346 146.37131 30909 ft 568 kts 69°
2026-04-23 17:03 31.94910 146.45996 30922 ft 571 kts 69°
2026-04-23 17:03 31.97465 146.54855 30919 ft 572 kts 69°
2026-04-23 17:04 32.00002 146.63681 30928 ft 572 kts 69°
2026-04-23 17:04 32.02571 146.72646 30916 ft 571 kts 70°
2026-04-23 17:05 32.05007 146.81168 30919 ft 573 kts 70°
2026-04-23 17:05 32.07536 146.90042 30924 ft 574 kts 70°
2026-04-23 17:06 32.10070 146.98962 30925 ft 574 kts 69°
2026-04-23 17:06 32.12627 147.07988 30939 ft 575 kts 69°
2026-04-23 17:07 32.15154 147.16940 30937 ft 571 kts 69°
2026-04-23 17:07 32.16420 147.21434 30937 ft 572 kts 69°
2026-04-23 17:08 32.20199 147.34886 30946 ft 571 kts 69°
2026-04-23 17:08 32.22693 147.43799 30940 ft 573 kts 70°
2026-04-23 17:09 32.25199 147.52783 30950 ft 573 kts 70°
2026-04-23 17:09 32.27690 147.61745 30948 ft 572 kts 70°
2026-04-23 17:10 32.30174 147.70702 30933 ft 570 kts 70°
2026-04-23 17:10 32.32650 147.79662 30936 ft 572 kts 70°
2026-04-23 17:11 32.35115 147.88611 30940 ft 572 kts 70°
2026-04-23 17:11 32.37597 147.97647 30940 ft 572 kts 70°
2026-04-23 17:12 32.40041 148.06570 30940 ft 571 kts 70°
2026-04-23 17:12 32.42504 148.15598 30948 ft 570 kts 70°
2026-04-23 17:13 32.44939 148.24545 30950 ft 572 kts 70°
2026-04-23 17:13 32.47373 148.33521 30949 ft 571 kts 70°
2026-04-23 17:14 32.49819 148.42569 30950 ft 572 kts 70°
2026-04-23 17:14 32.52228 148.51508 30955 ft 574 kts 70°
2026-04-23 17:15 32.54651 148.60525 30960 ft 572 kts 71°
2026-04-23 17:15 32.57068 148.69553 30938 ft 572 kts 71°
2026-04-23 17:16 32.59494 148.78639 30937 ft 573 kts 71°
2026-04-23 17:16 32.61884 148.87624 30943 ft 571 kts 71°
2026-04-23 17:17 32.64286 148.96680 30954 ft 572 kts 71°
2026-04-23 17:17 32.66653 149.05637 30961 ft 574 kts 71°
2026-04-23 17:18 32.70234 149.19237 30968 ft 574 kts 71°
2026-04-23 17:19 32.72611 149.28301 30971 ft 574 kts 71°
2026-04-23 17:19 32.74999 149.37439 30974 ft 573 kts 71°
2026-04-23 17:20 32.77344 149.46440 30974 ft 575 kts 71°
2026-04-23 17:21 32.82074 149.64687 30981 ft 574 kts 71°
2026-04-23 17:21 32.85596 149.78355 30967 ft 574 kts 72°
2026-04-23 17:22 32.89103 149.92035 30973 ft 573 kts 72°
2026-04-23 17:23 32.92577 150.05653 30977 ft 572 kts 71°
2026-04-23 17:24 32.96034 150.19269 30980 ft 572 kts 72°
2026-04-23 17:24 32.99472 150.32887 30979 ft 572 kts 71°
2026-04-23 17:25 33.02909 150.46562 30981 ft 571 kts 71°
2026-04-23 17:26 33.07459 150.64781 30989 ft 571 kts 71°
2026-04-23 17:27 33.10846 150.78424 30966 ft 571 kts 72°
2026-04-23 17:27 33.13109 150.87579 30968 ft 572 kts 72°
2026-04-23 17:28 33.15350 150.96675 30969 ft 571 kts 72°
2026-04-23 17:28 33.17595 151.05821 30969 ft 570 kts 72°
2026-04-23 17:29 33.19816 151.14900 30969 ft 570 kts 71°
2026-04-23 17:30 33.22784 151.27083 30979 ft 569 kts 72°
2026-04-23 17:30 33.26458 151.42242 30980 ft 568 kts 71°
2026-04-23 17:31 33.28654 151.51343 30984 ft 572 kts 72°
2026-04-23 17:31 33.30853 151.60490 30990 ft 570 kts 72°
2026-04-23 17:32 33.33031 151.69585 30975 ft 570 kts 72°
2026-04-23 17:32 33.35206 151.78696 30977 ft 568 kts 72°
2026-04-23 17:33 33.37382 151.87846 30973 ft 571 kts 72°
2026-04-23 17:33 33.39552 151.97005 30985 ft 567 kts 72°
2026-04-23 17:34 33.41698 152.06093 30996 ft 569 kts 72°
2026-04-23 17:35 33.44922 152.19806 30998 ft 567 kts 73°
2026-04-23 17:35 33.48119 152.33484 30999 ft 568 kts 72°
2026-04-23 17:36 33.50232 152.42563 31000 ft 566 kts 72°
2026-04-23 17:36 33.52359 152.51732 31001 ft 569 kts 73°
2026-04-23 17:37 33.54482 152.60924 31005 ft 569 kts 72°
2026-04-23 17:38 33.57631 152.74615 30994 ft 567 kts 73°
2026-04-23 17:38 33.59711 152.83699 30988 ft 567 kts 74°
2026-04-23 17:39 33.61819 152.92944 30997 ft 567 kts 73°
2026-04-23 17:39 33.63889 153.02055 30996 ft 566 kts 74°
2026-04-23 17:40 33.65968 153.11240 31009 ft 566 kts 74°
2026-04-23 17:40 33.68035 153.20406 31005 ft 565 kts 73°
2026-04-23 17:41 33.70092 153.29561 31005 ft 566 kts 74°
2026-04-23 17:41 33.73163 153.43288 31010 ft 567 kts 73°
2026-04-23 17:42 33.76202 153.56958 31018 ft 565 kts 74°
2026-04-23 17:43 33.78217 153.66063 31017 ft 562 kts 75°
2026-04-23 17:43 33.80255 153.75307 31006 ft 563 kts 75°
2026-04-23 17:44 33.82260 153.84436 31010 ft 563 kts 75°
2026-04-23 17:44 33.85239 153.98064 31020 ft 563 kts 75°
2026-04-23 17:45 33.88228 154.11818 31016 ft 562 kts 74°
2026-04-23 17:46 33.91181 154.25487 31029 ft 561 kts 75°
2026-04-23 17:46 33.93161 154.34692 31024 ft 563 kts 75°
2026-04-23 17:47 33.95113 154.43811 31034 ft 560 kts 74°
2026-04-23 17:48 33.98042 154.57550 31039 ft 560 kts 74°
2026-04-23 17:48 33.99975 154.66667 31033 ft 562 kts 75°
2026-04-23 17:49 34.01892 154.75738 31026 ft 561 kts 75°
2026-04-23 17:49 34.03832 154.84959 31033 ft 563 kts 75°
2026-04-23 17:50 34.05751 154.94115 31034 ft 562 kts 75°
2026-04-23 17:50 34.08622 155.07884 31029 ft 563 kts 75°
2026-04-23 17:51 34.10538 155.17119 31034 ft 564 kts 75°
2026-04-23 17:52 34.13366 155.30818 31030 ft 563 kts 75°
2026-04-23 17:52 34.16198 155.44623 31037 ft 562 kts 75°
2026-04-23 17:53 34.19027 155.58493 31038 ft 563 kts 75°
2026-04-23 17:54 34.20901 155.67728 31023 ft 564 kts 76°
2026-04-23 17:54 34.23700 155.81601 31029 ft 564 kts 75°
2026-04-23 17:55 34.26463 155.95373 31029 ft 565 kts 76°
2026-04-23 17:56 34.28320 156.04684 31036 ft 563 kts 76°
2026-04-23 17:56 34.31058 156.18478 31033 ft 565 kts 76°
2026-04-23 17:57 34.32883 156.27719 31041 ft 564 kts 76°
2026-04-23 17:58 34.35618 156.41649 31040 ft 563 kts 76°
2026-04-23 17:58 34.37426 156.50908 31049 ft 563 kts 76°
2026-04-23 17:59 34.39224 156.60149 31050 ft 563 kts 76°
2026-04-23 17:59 34.41022 156.69434 31038 ft 563 kts 77°
2026-04-23 18:00 34.42811 156.78711 31042 ft 563 kts 76°
2026-04-23 18:00 34.44579 156.87924 31043 ft 562 kts 76°
2026-04-23 18:01 34.46349 156.97179 31045 ft 563 kts 77°
2026-04-23 18:01 34.48103 157.06396 31045 ft 561 kts 77°
2026-04-23 18:02 34.49566 157.14114 31045 ft 563 kts 77°
2026-04-23 18:02 34.51598 157.24881 31050 ft 562 kts 76°
2026-04-23 18:03 34.53350 157.34212 31053 ft 562 kts 76°
2026-04-23 18:03 34.55073 157.43424 31059 ft 562 kts 76°
2026-04-23 18:04 34.56797 157.52681 31060 ft 561 kts 77°
2026-04-23 18:04 34.58524 157.62003 31064 ft 561 kts 76°
2026-04-23 18:05 34.60233 157.71265 31051 ft 562 kts 77°
2026-04-23 18:05 34.61923 157.80470 31060 ft 562 kts 77°
2026-04-23 18:06 34.63635 157.89831 31058 ft 563 kts 77°
2026-04-23 18:06 34.65328 157.99133 31057 ft 561 kts 77°
2026-04-23 18:07 34.66997 158.08347 31066 ft 562 kts 77°
2026-04-23 18:07 34.68672 158.17638 31068 ft 560 kts 77°
2026-04-23 18:08 34.70066 158.25400 31070 ft 559 kts 77°
2026-04-23 18:08 34.72000 158.36221 31073 ft 560 kts 77°
2026-04-23 18:09 34.73662 158.45566 31076 ft 559 kts 77°
2026-04-23 18:09 34.75295 158.54790 31077 ft 561 kts 77°
2026-04-23 18:10 34.76938 158.64117 31080 ft 561 kts 77°
2026-04-23 18:10 34.78578 158.73471 31070 ft 560 kts 77°
2026-04-23 18:11 34.80194 158.82729 31074 ft 561 kts 77°
2026-04-23 18:11 34.81822 158.92102 31072 ft 562 kts 78°
2026-04-23 18:12 34.83437 159.01445 31081 ft 562 kts 77°
2026-04-23 18:12 34.85045 159.10794 31081 ft 561 kts 77°
2026-04-23 18:13 34.86642 159.20125 31083 ft 561 kts 77°
2026-04-23 18:13 34.88228 159.29433 31092 ft 561 kts 77°
2026-04-23 18:14 34.89805 159.38734 31092 ft 561 kts 77°
2026-04-23 18:14 34.91385 159.48102 31094 ft 561 kts 77°
2026-04-23 18:15 34.92925 159.57275 31099 ft 560 kts 77°
2026-04-23 18:15 34.94488 159.66628 31094 ft 561 kts 78°
2026-04-23 18:16 34.96044 159.75989 31084 ft 562 kts 78°
2026-04-23 18:16 34.97595 159.85368 31094 ft 562 kts 78°
2026-04-23 18:17 34.99876 159.99443 31094 ft 562 kts 79°
2026-04-23 18:17 35.01237 160.08835 31099 ft 562 kts 79°
2026-04-23 18:18 35.02575 160.18214 31098 ft 563 kts 79°
2026-04-23 18:18 35.03912 160.27664 31100 ft 563 kts 79°
2026-04-23 18:19 35.05239 160.37120 31101 ft 563 kts 79°
2026-04-23 18:19 35.06555 160.46562 31101 ft 561 kts 79°
2026-04-23 18:20 35.07870 160.56050 31100 ft 564 kts 79°
2026-04-23 18:20 35.09166 160.65465 31100 ft 562 kts 80°
2026-04-23 18:21 35.10464 160.74959 31084 ft 564 kts 80°
2026-04-23 18:21 35.11746 160.84384 31094 ft 562 kts 80°
2026-04-23 18:22 35.13030 160.93884 31091 ft 563 kts 79°
2026-04-23 18:22 35.14306 161.03386 31092 ft 562 kts 80°
2026-04-23 18:23 35.16187 161.17502 31097 ft 564 kts 79°
2026-04-23 18:24 35.18064 161.31715 31107 ft 564 kts 79°
2026-04-23 18:25 35.19926 161.45946 31113 ft 563 kts 80°
2026-04-23 18:25 35.21159 161.55443 31119 ft 563 kts 79°
2026-04-23 18:26 35.22384 161.64937 31126 ft 563 kts 79°
2026-04-23 18:26 35.23588 161.74333 31114 ft 563 kts 80°
2026-04-23 18:27 35.24802 161.83865 31121 ft 564 kts 80°
2026-04-23 18:27 35.26009 161.93404 31126 ft 565 kts 80°
2026-04-23 18:28 35.27206 162.02930 31127 ft 564 kts 80°
2026-04-23 18:28 35.28395 162.12450 31130 ft 565 kts 80°
2026-04-23 18:29 35.29582 162.22015 31131 ft 564 kts 80°
2026-04-23 18:29 35.30756 162.31535 31131 ft 567 kts 80°
2026-04-23 18:30 35.31929 162.41116 31134 ft 564 kts 80°
2026-04-23 18:30 35.33087 162.50642 31138 ft 565 kts 80°
2026-04-23 18:31 35.34232 162.60118 31138 ft 566 kts 80°
2026-04-23 18:31 35.35386 162.69740 31121 ft 565 kts 81°
2026-04-23 18:32 35.36528 162.79321 31124 ft 567 kts 81°
2026-04-23 18:32 35.37658 162.88869 31127 ft 567 kts 81°
2026-04-23 18:33 35.38784 162.98462 31128 ft 567 kts 80°
2026-04-23 18:33 35.39908 163.08092 31130 ft 567 kts 81°
2026-04-23 18:34 35.41009 163.17603 31136 ft 568 kts 80°
2026-04-23 18:34 35.42111 163.27177 31138 ft 567 kts 80°
2026-04-23 18:35 35.43219 163.36876 31142 ft 568 kts 80°
2026-04-23 18:35 35.44310 163.46503 31144 ft 567 kts 80°
2026-04-23 18:36 35.45392 163.56104 31149 ft 569 kts 80°
2026-04-23 18:36 35.46467 163.65732 31148 ft 567 kts 81°
2026-04-23 18:37 35.47535 163.75356 31136 ft 568 kts 81°
2026-04-23 18:37 35.48597 163.85010 31141 ft 568 kts 81°
2026-04-23 18:38 35.49646 163.94612 31145 ft 570 kts 81°
2026-04-23 18:38 35.50700 164.04334 31147 ft 568 kts 81°
2026-04-23 18:39 35.51738 164.13971 31150 ft 569 kts 81°
2026-04-23 18:39 35.52771 164.23653 31158 ft 569 kts 81°
2026-04-23 18:40 35.53794 164.33299 31161 ft 568 kts 81°
2026-04-23 18:40 35.54810 164.42966 31169 ft 571 kts 80°
2026-04-23 18:41 35.55819 164.52638 31172 ft 570 kts 81°
2026-04-23 18:41 35.56826 164.62361 31174 ft 571 kts 81°
2026-04-23 18:42 35.57818 164.72025 31155 ft 571 kts 81°
2026-04-23 18:42 35.58810 164.81769 31166 ft 572 kts 81°
2026-04-23 18:43 35.59783 164.91403 31169 ft 570 kts 81°
2026-04-23 18:43 35.60757 165.01125 31175 ft 572 kts 81°
2026-04-23 18:44 35.61727 165.10889 31181 ft 571 kts 82°
2026-04-23 18:44 35.62687 165.20630 31189 ft 571 kts 82°
2026-04-23 18:45 35.63638 165.30371 31183 ft 571 kts 82°
2026-04-23 18:45 35.64579 165.40085 31198 ft 571 kts 81°
2026-04-23 18:46 35.65515 165.49826 31204 ft 570 kts 81°
2026-04-23 18:46 35.66436 165.59497 31200 ft 569 kts 81°
2026-04-23 18:47 35.67354 165.69222 31187 ft 570 kts 82°
2026-04-23 18:47 35.68265 165.78961 31195 ft 570 kts 82°
2026-04-23 18:48 35.69162 165.88632 31198 ft 568 kts 82°
2026-04-23 18:48 35.70045 165.98236 31206 ft 568 kts 82°
2026-04-23 18:49 35.70929 166.07933 31207 ft 569 kts 82°
2026-04-23 18:49 35.71807 166.17667 31208 ft 568 kts 82°
2026-04-23 18:50 35.72525 166.25688 31210 ft 568 kts 82°
2026-04-23 18:50 35.73528 166.36981 31213 ft 568 kts 82°
2026-04-23 18:51 35.74381 166.46693 31223 ft 569 kts 82°
2026-04-23 18:51 35.75222 166.56372 31218 ft 567 kts 82°
2026-04-23 18:52 35.76057 166.66057 31214 ft 570 kts 82°
2026-04-23 18:52 35.76882 166.75717 31203 ft 569 kts 82°
2026-04-23 18:53 35.77704 166.85439 31203 ft 567 kts 83°
2026-04-23 18:53 35.78513 166.95105 31200 ft 569 kts 82°
2026-04-23 18:54 35.79320 167.04828 31203 ft 570 kts 83°
2026-04-23 18:54 35.80118 167.14558 31208 ft 567 kts 83°
2026-04-23 18:55 35.80906 167.24252 31222 ft 567 kts 83°
2026-04-23 18:55 35.81686 167.33957 31221 ft 568 kts 82°
2026-04-23 18:56 35.82329 167.42020 31229 ft 567 kts 83°
2026-04-23 18:56 35.83223 167.53346 31237 ft 567 kts 82°
2026-04-23 18:57 35.83979 167.63046 31244 ft 567 kts 83°
2026-04-23 18:57 35.84727 167.72739 31224 ft 568 kts 83°
2026-04-23 18:58 35.85466 167.82414 31236 ft 566 kts 83°
2026-04-23 18:58 35.86205 167.92195 31238 ft 567 kts 83°
2026-04-23 18:59 35.86930 168.01901 31242 ft 568 kts 83°
2026-04-23 18:59 35.87642 168.11542 31243 ft 566 kts 83°
2026-04-23 19:00 35.88358 168.21332 31246 ft 568 kts 83°
2026-04-23 19:00 35.89055 168.30981 31250 ft 567 kts 83°
2026-04-23 19:01 35.89745 168.40643 31250 ft 566 kts 83°
2026-04-23 19:01 35.90434 168.50383 31250 ft 567 kts 83°
2026-04-23 19:02 35.91003 168.58540 31253 ft 568 kts 83°
2026-04-23 19:02 35.91788 168.69908 31235 ft 567 kts 83°
2026-04-23 19:03 35.92453 168.79649 31237 ft 570 kts 84°
2026-04-23 19:03 35.93111 168.89426 31238 ft 568 kts 84°
2026-04-23 19:04 35.93761 168.99197 31241 ft 569 kts 83°
2026-04-23 19:04 35.94398 169.08896 31246 ft 568 kts 83°
2026-04-23 19:05 35.95031 169.18648 31245 ft 569 kts 84°
2026-04-23 19:05 35.95658 169.28429 31248 ft 569 kts 83°
2026-04-23 19:06 35.96273 169.38153 31252 ft 571 kts 84°
2026-04-23 19:06 35.96885 169.47945 31258 ft 569 kts 84°
2026-04-23 19:07 35.97486 169.57703 31259 ft 570 kts 84°
2026-04-23 19:07 35.98079 169.67465 31256 ft 569 kts 84°
2026-04-23 19:08 35.98665 169.77220 31265 ft 571 kts 84°
2026-04-23 19:08 35.99244 169.87012 31274 ft 570 kts 84°
2026-04-23 19:09 35.99814 169.96796 31275 ft 569 kts 84°
2026-04-23 19:09 36.01253 170.06432 31266 ft 566 kts 69°
2026-04-23 19:10 36.03651 170.15662 31266 ft 565 kts 69°
2026-04-23 19:10 36.06010 170.24876 31270 ft 566 kts 69°
2026-04-23 19:11 36.08360 170.34244 31273 ft 565 kts 69°
2026-04-23 19:11 36.10641 170.43465 31273 ft 563 kts 69°
2026-04-23 19:12 36.12555 170.51265 31278 ft 564 kts 70°
2026-04-23 19:12 36.15197 170.62114 31281 ft 565 kts 70°
2026-04-23 19:13 36.17476 170.71533 31267 ft 566 kts 70°
2026-04-23 19:13 36.19717 170.80841 31265 ft 565 kts 70°
2026-04-23 19:14 36.21966 170.90222 31273 ft 566 kts 70°
2026-04-23 19:14 36.24202 170.99589 31270 ft 565 kts 70°
2026-04-23 19:15 36.26438 171.08989 31271 ft 566 kts 70°
2026-04-23 19:15 36.28667 171.18404 31275 ft 568 kts 70°
2026-04-23 19:16 36.30879 171.27780 31277 ft 568 kts 70°
2026-04-23 19:16 36.33071 171.37111 31286 ft 567 kts 70°
2026-04-23 19:17 36.36389 171.51302 31286 ft 566 kts 70°
2026-04-23 19:17 36.38578 171.60706 31287 ft 569 kts 70°
2026-04-23 19:18 36.40758 171.70114 31272 ft 568 kts 71°
2026-04-23 19:18 36.42936 171.79547 31273 ft 568 kts 71°
2026-04-23 19:19 36.46187 171.93706 31281 ft 567 kts 70°
2026-04-23 19:20 36.49426 172.07887 31282 ft 567 kts 71°
2026-04-23 19:20 36.51595 172.17439 31287 ft 567 kts 71°
2026-04-23 19:21 36.54787 172.31563 31290 ft 567 kts 71°
2026-04-23 19:22 36.56931 172.41093 31295 ft 566 kts 71°
2026-04-23 19:22 36.60098 172.55250 31298 ft 567 kts 71°
2026-04-23 19:23 36.62200 172.64694 31306 ft 568 kts 71°
2026-04-23 19:24 36.65374 172.79025 31287 ft 566 kts 71°
2026-04-23 19:24 36.68535 172.93388 31298 ft 570 kts 72°
2026-04-23 19:25 36.72692 173.12418 31303 ft 570 kts 71°
2026-04-23 19:26 36.75794 173.26723 31310 ft 566 kts 71°
2026-04-23 19:27 36.80922 173.50571 31314 ft 569 kts 71°
2026-04-23 19:28 36.85018 173.69798 31298 ft 569 kts 72°
2026-04-23 19:29 36.88074 173.84262 31300 ft 569 kts 72°
2026-04-23 19:30 36.91097 173.98656 31311 ft 571 kts 72°
2026-04-23 19:31 36.94106 174.13078 31323 ft 572 kts 71°
2026-04-23 19:31 36.96100 174.22690 31325 ft 572 kts 72°
2026-04-23 19:32 36.98072 174.32234 31327 ft 572 kts 72°
2026-04-23 19:32 37.00071 174.41952 31326 ft 572 kts 72°
2026-04-23 19:33 37.02043 174.51590 31332 ft 572 kts 72°
2026-04-23 19:33 37.05006 174.66142 31332 ft 574 kts 72°
2026-04-23 19:34 37.06959 174.75790 31316 ft 573 kts 72°
2026-04-23 19:35 37.09890 174.90353 31319 ft 574 kts 72°
2026-04-23 19:35 37.11839 175.00095 31329 ft 572 kts 72°
2026-04-23 19:36 37.13784 175.09853 31324 ft 575 kts 72°
2026-04-23 19:36 37.15693 175.19484 31326 ft 573 kts 73°
2026-04-23 19:37 37.17634 175.29315 31329 ft 574 kts 73°
2026-04-23 19:37 37.19546 175.39046 31332 ft 574 kts 73°
2026-04-23 19:38 37.21454 175.48807 31330 ft 574 kts 73°
2026-04-23 19:38 37.23347 175.58530 31340 ft 576 kts 73°
2026-04-23 19:39 37.25260 175.68405 31324 ft 575 kts 73°
2026-04-23 19:39 37.27135 175.78134 31327 ft 576 kts 73°
2026-04-23 19:40 37.29010 175.87904 31338 ft 577 kts 73°
2026-04-23 19:40 37.30890 175.97752 31326 ft 576 kts 73°
2026-04-23 19:41 37.32750 176.07542 31332 ft 575 kts 73°
2026-04-23 19:41 37.34607 176.17362 31331 ft 576 kts 73°
2026-04-23 19:42 37.36448 176.27145 31338 ft 575 kts 73°
2026-04-23 19:42 37.38295 176.37009 31343 ft 575 kts 73°
2026-04-23 19:43 37.40120 176.46799 31341 ft 573 kts 73°
2026-04-23 19:43 37.41938 176.56599 31342 ft 577 kts 73°
2026-04-23 19:44 37.43748 176.66412 31338 ft 574 kts 74°
2026-04-23 19:44 37.45555 176.76256 31327 ft 576 kts 74°
2026-04-23 19:45 37.47367 176.86175 31329 ft 574 kts 74°
2026-04-23 19:45 37.49147 176.95966 31335 ft 574 kts 74°
2026-04-23 19:46 37.50919 177.05765 31335 ft 576 kts 73°
2026-04-23 19:46 37.52694 177.15628 31337 ft 573 kts 74°
2026-04-23 19:47 37.54173 177.23886 31340 ft 575 kts 74°
2026-04-23 19:47 37.56219 177.35371 31340 ft 573 kts 74°
2026-04-23 19:48 37.57967 177.45235 31336 ft 575 kts 74°
2026-04-23 19:48 37.59704 177.55089 31338 ft 575 kts 74°
2026-04-23 19:49 37.61430 177.64932 31339 ft 575 kts 75°
2026-04-23 19:49 37.63165 177.74881 31325 ft 575 kts 75°
2026-04-23 19:50 37.64873 177.84717 31324 ft 577 kts 75°
2026-04-23 19:50 37.66586 177.94649 31332 ft 576 kts 75°
2026-04-23 19:51 37.68271 178.04462 31329 ft 576 kts 75°
2026-04-23 19:51 37.69986 178.14504 31332 ft 576 kts 75°
2026-04-23 19:52 37.71661 178.24364 31338 ft 575 kts 75°
2026-04-23 19:52 37.73331 178.34245 31341 ft 575 kts 75°
2026-04-23 19:53 37.74999 178.44173 31346 ft 575 kts 76°
2026-04-23 19:53 37.76657 178.54089 31354 ft 577 kts 75°
2026-04-23 19:54 37.78302 178.63991 31353 ft 576 kts 75°
2026-04-23 19:54 37.79963 178.74039 31336 ft 577 kts 76°
2026-04-23 19:55 37.81594 178.83960 31341 ft 575 kts 76°
2026-04-23 19:55 37.83210 178.93842 31345 ft 577 kts 76°
2026-04-23 19:56 37.84830 179.03809 31343 ft 578 kts 76°
2026-04-23 19:56 37.86446 179.13808 31345 ft 576 kts 76°
2026-04-23 19:57 37.88047 179.23769 31350 ft 580 kts 76°
2026-04-23 19:57 37.89646 179.33775 31349 ft 577 kts 76°
2026-04-23 19:58 37.91238 179.43790 31348 ft 578 kts 76°
2026-04-23 19:58 37.92816 179.53784 31351 ft 578 kts 76°
2026-04-23 19:59 37.94379 179.63730 31354 ft 580 kts 76°
2026-04-23 19:59 37.95956 179.73831 31338 ft 580 kts 76°
2026-04-23 20:00 37.97506 179.83812 31338 ft 578 kts 76°
2026-04-23 20:00 37.99058 179.93870 31344 ft 579 kts 76°
2026-04-23 20:01 38.01016 -179.96265 31346 ft 577 kts 65°
2026-04-23 20:01 38.04331 -179.87003 31345 ft 568 kts 60°
2026-04-23 20:02 38.07708 -179.77849 31345 ft 571 kts 60°
2026-04-23 20:02 38.11029 -179.68672 31353 ft 570 kts 60°
2026-04-23 20:03 38.14310 -179.59492 31348 ft 569 kts 60°
2026-04-23 20:03 38.17573 -179.50288 31354 ft 570 kts 61°
2026-04-23 20:04 38.20809 -179.41100 31334 ft 569 kts 61°
2026-04-23 20:04 38.24052 -179.31847 31331 ft 572 kts 61°
2026-04-23 20:05 38.27294 -179.22557 31331 ft 572 kts 62°
2026-04-23 20:05 38.30510 -179.13307 31334 ft 571 kts 61°
2026-04-23 20:06 38.33713 -179.04060 31340 ft 571 kts 61°
2026-04-23 20:06 38.36922 -178.94769 31336 ft 570 kts 61°
2026-04-23 20:07 38.40134 -178.85435 31339 ft 574 kts 61°
2026-04-23 20:07 38.43300 -178.76202 31340 ft 569 kts 61°
2026-04-23 20:08 38.46487 -178.66887 31341 ft 574 kts 61°
2026-04-23 20:08 38.49676 -178.57529 31341 ft 571 kts 61°
2026-04-23 20:09 38.52860 -178.48160 31332 ft 575 kts 61°
2026-04-23 20:09 38.56008 -178.38860 31323 ft 571 kts 62°
2026-04-23 20:10 38.58637 -178.31074 31325 ft 572 kts 62°
2026-04-23 20:10 38.62322 -178.20123 31325 ft 572 kts 61°
2026-04-23 20:11 38.65490 -178.10678 31329 ft 574 kts 61°
2026-04-23 20:11 38.68625 -178.01300 31326 ft 573 kts 61°
2026-04-23 20:12 38.71783 -177.91821 31331 ft 573 kts 62°
2026-04-23 20:12 38.74904 -177.82425 31329 ft 575 kts 61°
2026-04-23 20:13 38.78033 -177.72967 31337 ft 573 kts 61°
2026-04-23 20:13 38.81156 -177.63504 31337 ft 577 kts 61°
2026-04-23 20:14 38.84277 -177.54011 31337 ft 576 kts 61°
2026-04-23 20:14 38.87365 -177.44585 31339 ft 577 kts 61°
2026-04-23 20:15 38.90485 -177.35036 31340 ft 578 kts 62°
2026-04-23 20:15 38.93585 -177.25508 31321 ft 578 kts 62°
2026-04-23 20:16 38.96690 -177.15941 31315 ft 580 kts 62°
2026-04-23 20:16 38.99815 -177.06273 31305 ft 580 kts 62°
2026-04-23 20:17 39.02914 -176.96654 31303 ft 582 kts 62°
2026-04-23 20:17 39.06000 -176.87039 31308 ft 580 kts 62°
2026-04-23 20:18 39.09101 -176.77348 31318 ft 583 kts 62°
2026-04-23 20:18 39.12199 -176.67633 31331 ft 582 kts 62°
2026-04-23 20:19 39.15264 -176.57988 31334 ft 583 kts 62°
2026-04-23 20:19 39.18342 -176.48271 31334 ft 586 kts 62°
2026-04-23 20:20 39.21442 -176.38444 31337 ft 586 kts 62°
2026-04-23 20:20 39.24508 -176.28693 31314 ft 586 kts 63°
2026-04-23 20:21 39.27602 -176.18820 31315 ft 589 kts 63°
2026-04-23 20:21 39.30648 -176.09059 31314 ft 586 kts 62°
2026-04-23 20:22 39.33706 -175.99232 31319 ft 590 kts 62°
2026-04-23 20:22 39.36768 -175.89351 31319 ft 590 kts 62°
2026-04-23 20:23 39.39798 -175.79540 31319 ft 590 kts 62°
2026-04-23 20:23 39.42837 -175.69667 31324 ft 588 kts 62°
2026-04-23 20:24 39.45884 -175.59731 31325 ft 590 kts 62°
2026-04-23 20:24 39.48893 -175.49878 31326 ft 588 kts 62°
2026-04-23 20:25 39.51891 -175.40033 31328 ft 588 kts 62°
2026-04-23 20:25 39.54891 -175.30142 31307 ft 588 kts 63°
2026-04-23 20:26 39.57918 -175.20128 31305 ft 592 kts 62°
2026-04-23 20:26 39.60892 -175.10246 31306 ft 589 kts 62°
2026-04-23 20:27 39.63864 -175.00339 31308 ft 590 kts 62°
2026-04-23 20:27 39.66840 -174.90384 31313 ft 590 kts 63°
2026-04-23 20:28 39.69826 -174.80353 31309 ft 587 kts 63°
2026-04-23 20:28 39.72756 -174.70473 31310 ft 589 kts 62°
2026-04-23 20:29 39.75723 -174.60437 31307 ft 591 kts 62°
2026-04-23 20:29 39.78656 -174.50473 31297 ft 589 kts 62°
2026-04-23 20:30 39.81594 -174.40459 31304 ft 590 kts 62°
2026-04-23 20:30 39.85953 -174.25525 31283 ft 590 kts 63°
2026-04-23 20:31 39.88877 -174.15463 31276 ft 589 kts 63°
2026-04-23 20:31 39.91775 -174.05453 31281 ft 591 kts 63°
2026-04-23 20:32 39.94652 -173.95470 31286 ft 590 kts 62°
2026-04-23 20:32 39.97549 -173.85385 31282 ft 589 kts 62°
2026-04-23 20:33 40.00421 -173.75348 31289 ft 590 kts 62°
2026-04-23 20:33 40.03306 -173.65233 31294 ft 593 kts 62°
2026-04-23 20:34 40.06147 -173.55217 31291 ft 589 kts 62°
2026-04-23 20:34 40.09010 -173.45100 31297 ft 591 kts 62°
2026-04-23 20:35 40.11866 -173.34963 31306 ft 592 kts 63°
2026-04-23 20:35 40.14699 -173.24861 31270 ft 589 kts 63°
2026-04-23 20:36 40.17537 -173.14714 31278 ft 594 kts 62°
2026-04-23 20:36 40.20347 -173.04619 31288 ft 593 kts 62°
2026-04-23 20:37 40.23149 -172.94508 31279 ft 591 kts 63°
2026-04-23 20:37 40.25958 -172.84340 31280 ft 590 kts 63°
2026-04-23 20:38 40.28745 -172.74208 31281 ft 592 kts 63°
2026-04-23 20:38 40.31540 -172.64006 31293 ft 591 kts 62°
2026-04-23 20:39 40.34303 -172.53883 31299 ft 592 kts 63°
2026-04-23 20:39 40.37065 -172.43723 31296 ft 592 kts 62°
2026-04-23 20:40 40.39840 -172.33469 31285 ft 591 kts 63°
2026-04-23 20:40 40.42593 -172.23254 31271 ft 590 kts 63°
2026-04-23 20:41 40.45313 -172.13130 31271 ft 594 kts 64°
2026-04-23 20:41 40.48040 -172.02925 31282 ft 591 kts 63°
2026-04-23 20:42 40.50782 -171.92631 31266 ft 591 kts 63°
2026-04-23 20:42 40.53477 -171.82471 31278 ft 591 kts 64°
2026-04-23 20:43 40.56189 -171.72205 31282 ft 594 kts 64°
2026-04-23 20:43 40.58886 -171.61948 31266 ft 593 kts 64°
2026-04-23 20:44 40.61605 -171.51570 31266 ft 594 kts 64°
2026-04-23 20:44 40.64267 -171.41359 31277 ft 592 kts 64°
2026-04-23 20:45 40.66935 -171.31085 31253 ft 593 kts 65°
2026-04-23 20:45 40.69613 -171.20729 31249 ft 590 kts 65°
2026-04-23 20:46 40.72263 -171.10445 31234 ft 596 kts 65°
2026-04-23 20:46 40.74934 -171.00017 31243 ft 590 kts 64°
2026-04-23 20:47 40.77558 -170.89746 31249 ft 591 kts 65°
2026-04-23 20:47 40.80177 -170.79448 31244 ft 592 kts 65°
2026-04-23 20:48 40.82795 -170.69102 31244 ft 591 kts 65°
2026-04-23 20:48 40.85393 -170.58797 31251 ft 590 kts 65°
2026-04-23 20:49 40.87964 -170.48547 31269 ft 587 kts 65°
2026-04-23 20:49 40.90530 -170.38286 31266 ft 591 kts 65°
2026-04-23 20:50 40.93120 -170.27876 31202 ft 590 kts 66°
2026-04-23 20:50 40.95673 -170.17566 31229 ft 588 kts 66°
2026-04-23 20:51 40.98206 -170.07292 31217 ft 586 kts 66°
2026-04-23 20:51 40.99761 -169.96606 31224 ft 596 kts 81°
2026-04-23 20:52 41.00405 -169.85577 31241 ft 598 kts 83°
2026-04-23 20:52 41.00948 -169.74589 31227 ft 596 kts 83°
2026-04-23 20:53 41.01443 -169.63640 31219 ft 595 kts 84°
2026-04-23 20:53 41.01909 -169.52664 31220 ft 594 kts 84°
2026-04-23 20:54 41.02351 -169.41725 31227 ft 597 kts 84°
2026-04-23 20:54 41.02780 -169.30635 31212 ft 595 kts 85°
2026-04-23 20:55 41.03189 -169.19699 31192 ft 594 kts 84°
2026-04-23 20:55 41.03582 -169.08836 31200 ft 592 kts 85°
2026-04-23 20:56 41.03967 -168.97867 31204 ft 593 kts 85°
2026-04-23 20:56 41.04340 -168.86938 31201 ft 591 kts 85°
2026-04-23 20:57 41.04699 -168.76085 31209 ft 592 kts 85°
2026-04-23 20:57 41.05048 -168.65192 31190 ft 589 kts 85°
2026-04-23 20:58 41.05388 -168.54306 31219 ft 590 kts 85°
2026-04-23 20:58 41.05716 -168.43427 31220 ft 588 kts 85°
2026-04-23 20:59 41.06035 -168.32553 31222 ft 589 kts 86°
2026-04-23 20:59 41.06341 -168.21738 31211 ft 589 kts 86°
2026-04-23 21:00 41.06639 -168.10849 31209 ft 589 kts 86°
2026-04-23 21:00 41.06925 -168.00037 31214 ft 585 kts 86°
2026-04-23 21:01 41.07200 -167.89243 31229 ft 586 kts 86°
2026-04-23 21:01 41.07467 -167.78378 31224 ft 585 kts 86°
2026-04-23 21:02 41.07720 -167.67656 31230 ft 585 kts 86°
2026-04-23 21:02 41.07965 -167.56874 31213 ft 584 kts 87°
2026-04-23 21:03 41.08198 -167.46143 31235 ft 583 kts 86°
2026-04-23 21:03 41.08424 -167.35290 31250 ft 584 kts 87°
2026-04-23 21:04 41.08638 -167.24576 31220 ft 584 kts 87°
2026-04-23 21:04 41.08841 -167.13847 31209 ft 582 kts 88°
2026-04-23 21:05 41.09035 -167.03082 31218 ft 580 kts 88°
2026-04-23 21:05 41.09217 -166.92398 31221 ft 580 kts 88°
2026-04-23 21:06 41.09388 -166.81862 31218 ft 579 kts 88°
2026-04-23 21:06 41.09551 -166.71219 31213 ft 577 kts 88°
2026-04-23 21:07 41.09705 -166.60480 31223 ft 577 kts 88°
2026-04-23 21:07 41.09846 -166.49925 31232 ft 576 kts 88°
2026-04-23 21:08 41.09980 -166.39278 31221 ft 577 kts 88°
2026-04-23 21:08 41.10103 -166.28657 31202 ft 573 kts 89°
2026-04-23 21:09 41.10215 -166.18117 31188 ft 575 kts 89°
2026-04-23 21:09 41.10319 -166.07516 31192 ft 572 kts 90°
2026-04-23 21:10 41.10412 -165.96960 31192 ft 572 kts 90°
2026-04-23 21:10 41.10496 -165.86342 31202 ft 570 kts 90°
2026-04-23 21:11 41.10570 -165.75816 31203 ft 572 kts 90°
2026-04-23 21:11 41.10634 -165.65303 31187 ft 572 kts 90°
2026-04-23 21:12 41.10689 -165.54704 31202 ft 570 kts 90°
2026-04-23 21:12 41.10734 -165.44153 31209 ft 571 kts 90°
2026-04-23 21:13 41.10769 -165.33678 31180 ft 569 kts 91°
2026-04-23 21:13 41.10795 -165.23148 31179 ft 571 kts 91°
2026-04-23 21:14 41.10812 -165.12590 31167 ft 566 kts 92°
2026-04-23 21:14 41.10818 -165.02080 31177 ft 567 kts 91°
2026-04-23 21:15 41.10815 -164.91656 31170 ft 568 kts 92°
2026-04-23 21:15 41.10803 -164.81161 31176 ft 570 kts 92°
2026-04-23 21:16 41.10781 -164.70572 31177 ft 568 kts 92°
2026-04-23 21:16 41.10749 -164.60141 31182 ft 569 kts 92°
2026-04-23 21:17 41.10709 -164.49637 31175 ft 569 kts 92°
2026-04-23 21:17 41.10658 -164.39174 31189 ft 569 kts 92°
2026-04-23 21:18 41.10598 -164.28621 31159 ft 566 kts 93°
2026-04-23 21:18 41.10529 -164.18179 31159 ft 568 kts 93°
2026-04-23 21:19 41.10450 -164.07752 31154 ft 567 kts 94°
2026-04-23 21:19 41.10361 -163.97192 31151 ft 568 kts 94°
2026-04-23 21:20 41.10263 -163.86696 31150 ft 567 kts 94°
2026-04-23 21:20 41.10156 -163.76241 31153 ft 568 kts 94°
2026-04-23 21:21 41.10039 -163.65732 31151 ft 568 kts 94°
2026-04-23 21:21 41.09911 -163.55168 31166 ft 568 kts 94°
2026-04-23 21:22 41.09775 -163.44656 31156 ft 569 kts 94°
2026-04-23 21:22 41.09629 -163.34170 31166 ft 568 kts 95°
2026-04-23 21:23 41.09475 -163.23732 31155 ft 570 kts 95°
2026-04-23 21:23 41.09310 -163.13200 31152 ft 568 kts 95°
2026-04-23 21:24 41.09135 -163.02663 31146 ft 569 kts 95°
2026-04-23 21:24 41.08951 -162.92203 31153 ft 569 kts 95°
2026-04-23 21:25 41.08757 -162.81683 31142 ft 570 kts 95°
2026-04-23 21:25 41.08555 -162.71191 31147 ft 567 kts 95°
2026-04-23 21:26 41.08341 -162.60661 31150 ft 568 kts 95°
2026-04-23 21:26 41.08121 -162.50230 31150 ft 566 kts 96°
2026-04-23 21:27 41.07892 -162.39844 31152 ft 567 kts 95°
2026-04-23 21:27 41.07651 -162.29344 31129 ft 563 kts 96°
2026-04-23 21:28 41.07402 -162.18916 31127 ft 564 kts 96°
2026-04-23 21:28 41.07142 -162.08446 31130 ft 566 kts 96°
2026-04-23 21:29 41.06877 -161.98086 31135 ft 563 kts 96°
2026-04-23 21:29 41.06602 -161.87741 31129 ft 562 kts 96°
2026-04-23 21:30 41.06317 -161.77387 31130 ft 563 kts 96°
2026-04-23 21:30 41.06023 -161.67007 31130 ft 561 kts 96°
2026-04-23 21:31 41.05722 -161.56720 31127 ft 560 kts 96°
2026-04-23 21:31 41.05410 -161.46372 31125 ft 560 kts 96°
2026-04-23 21:32 41.05087 -161.36000 31125 ft 560 kts 96°
2026-04-23 21:32 41.04761 -161.25763 31111 ft 557 kts 97°
2026-04-23 21:33 41.04422 -161.15466 31115 ft 558 kts 97°
2026-04-23 21:33 41.04076 -161.05205 31113 ft 558 kts 96°
2026-04-23 21:34 41.03719 -160.94882 31110 ft 556 kts 97°
2026-04-23 21:34 41.03359 -160.84731 31107 ft 552 kts 97°
2026-04-23 21:35 41.02982 -160.74396 31102 ft 552 kts 96°
2026-04-23 21:35 41.02605 -160.64300 31104 ft 554 kts 96°
2026-04-23 21:36 41.02023 -160.49109 31102 ft 549 kts 96°
2026-04-23 21:37 41.01622 -160.38960 31115 ft 549 kts 97°
2026-04-23 21:37 41.01215 -160.28871 31086 ft 546 kts 97°
2026-04-23 21:38 41.00802 -160.18858 31098 ft 547 kts 97°
2026-04-23 21:38 41.00379 -160.08835 31095 ft 547 kts 97°
2026-04-23 21:39 40.99952 -159.98853 31091 ft 544 kts 97°
2026-04-23 21:39 41.00249 -159.88725 31089 ft 548 kts 89°
2026-04-23 21:40 41.00770 -159.78654 31084 ft 544 kts 89°
2026-04-23 21:40 41.01237 -159.68671 31085 ft 545 kts 90°
2026-04-23 21:41 41.01671 -159.58694 31088 ft 543 kts 89°
2026-04-23 21:41 41.02085 -159.48622 31088 ft 543 kts 90°
2026-04-23 21:42 41.02481 -159.38612 31081 ft 542 kts 89°
2026-04-23 21:42 41.02861 -159.28648 31071 ft 540 kts 90°
2026-04-23 21:43 41.03230 -159.18697 31070 ft 537 kts 90°
2026-04-23 21:43 41.03587 -159.08765 31073 ft 539 kts 90°
2026-04-23 21:44 41.03933 -158.98921 31074 ft 540 kts 90°
2026-04-23 21:44 41.04272 -158.88997 31071 ft 537 kts 90°
2026-04-23 21:45 41.04604 -158.79033 31078 ft 537 kts 90°
2026-04-23 21:45 41.04922 -158.69196 31081 ft 536 kts 90°
2026-04-23 21:46 41.05233 -158.59357 31090 ft 535 kts 90°
2026-04-23 21:46 41.05538 -158.49383 31101 ft 535 kts 90°
2026-04-23 21:47 41.05832 -158.39526 31095 ft 535 kts 90°
2026-04-23 21:47 41.06118 -158.29669 31105 ft 532 kts 91°
2026-04-23 21:48 41.06394 -158.19865 31104 ft 533 kts 91°
2026-04-23 21:48 41.06662 -158.10019 31113 ft 535 kts 91°
2026-04-23 21:49 41.06921 -158.00177 31110 ft 534 kts 91°
2026-04-23 21:49 41.07172 -157.90341 31119 ft 535 kts 90°
2026-04-23 21:50 41.07415 -157.80495 31124 ft 535 kts 90°
2026-04-23 21:50 41.07652 -157.70549 31126 ft 534 kts 90°
2026-04-23 21:51 41.07879 -157.60693 31135 ft 536 kts 90°
2026-04-23 21:51 41.08099 -157.50754 31147 ft 536 kts 90°
2026-04-23 21:52 41.08308 -157.40924 31155 ft 535 kts 90°
2026-04-23 21:52 41.08509 -157.31114 31149 ft 534 kts 91°
2026-04-23 21:53 41.08701 -157.21287 31163 ft 533 kts 90°
2026-04-23 21:53 41.08887 -157.11333 31156 ft 533 kts 90°
2026-04-23 21:54 41.09062 -157.01526 31172 ft 535 kts 90°
2026-04-23 21:54 41.09229 -156.91728 31177 ft 534 kts 90°
2026-04-23 21:55 41.09388 -156.81853 31175 ft 534 kts 90°
2026-04-23 21:55 41.09540 -156.71922 31187 ft 536 kts 90°
2026-04-23 21:56 41.09681 -156.62167 31193 ft 533 kts 90°
2026-04-23 21:56 41.09816 -156.52287 31197 ft 533 kts 90°
2026-04-23 21:57 41.09941 -156.42421 31198 ft 533 kts 90°
2026-04-23 21:57 41.10058 -156.32614 31200 ft 532 kts 90°
2026-04-23 21:58 41.10166 -156.22849 31196 ft 531 kts 90°
2026-04-23 21:58 41.10267 -156.12917 31203 ft 533 kts 90°
2026-04-23 21:59 41.10358 -156.03178 31214 ft 533 kts 90°
2026-04-23 21:59 41.10442 -155.93361 31215 ft 530 kts 90°
2026-04-23 22:00 41.10551 -155.78587 31215 ft 530 kts 90°
2026-04-23 22:00 41.10614 -155.68771 31227 ft 532 kts 90°
2026-04-23 22:01 41.10667 -155.59047 31228 ft 532 kts 90°
2026-04-23 22:01 41.10713 -155.49234 31229 ft 530 kts 90°
2026-04-23 22:02 41.10751 -155.39410 31236 ft 530 kts 90°
2026-04-23 22:02 41.10780 -155.29629 31222 ft 528 kts 90°
2026-04-23 22:03 41.10801 -155.19914 31230 ft 528 kts 90°
2026-04-23 22:03 41.10813 -155.10387 31237 ft 529 kts 90°
2026-04-23 22:04 41.10818 -155.00623 31255 ft 528 kts 91°
2026-04-23 22:04 41.10815 -154.90924 31249 ft 528 kts 90°
2026-04-23 22:05 41.10803 -154.81218 31271 ft 529 kts 90°
2026-04-23 22:05 41.10783 -154.71451 31268 ft 529 kts 90°
2026-04-23 22:06 41.10754 -154.61603 31272 ft 528 kts 90°
2026-04-23 22:06 41.10719 -154.52162 31267 ft 528 kts 90°
2026-04-23 22:07 41.10675 -154.42438 31277 ft 527 kts 90°
2026-04-23 22:07 41.10622 -154.32660 31270 ft 525 kts 90°
2026-04-23 22:08 41.10561 -154.22868 31346 ft 535 kts 90°
2026-04-23 22:08 41.10527 -154.17868 31993 ft 534 kts 90°
2026-04-23 22:08 41.10491 -154.13025 32953 ft 527 kts 90°
2026-04-23 22:09 41.10453 -154.08144 33816 ft 522 kts 90°
2026-04-23 22:09 41.10415 -154.03398 34432 ft 521 kts 90°
2026-04-23 22:09 41.10374 -153.98601 35008 ft 522 kts 90°
2026-04-23 22:09 41.10330 -153.93776 35304 ft 526 kts 90°
2026-04-23 22:10 41.10237 -153.84091 35304 ft 523 kts 90°
2026-04-23 22:10 41.10136 -153.74358 35304 ft 524 kts 90°
2026-04-23 22:11 41.10027 -153.64708 35312 ft 523 kts 90°
2026-04-23 22:11 41.09910 -153.55061 35314 ft 522 kts 90°
2026-04-23 22:12 41.09785 -153.45389 35316 ft 521 kts 90°
2026-04-23 22:12 41.09652 -153.35771 35322 ft 523 kts 90°
2026-04-23 22:13 41.09512 -153.26166 35316 ft 522 kts 90°
2026-04-23 22:13 41.09362 -153.16513 35317 ft 522 kts 90°
2026-04-23 22:14 41.09205 -153.06865 35324 ft 520 kts 90°
2026-04-23 22:14 41.09041 -152.97261 35326 ft 518 kts 90°
2026-04-23 22:15 41.08870 -152.87733 35328 ft 521 kts 90°
2026-04-23 22:15 41.08689 -152.78128 35332 ft 519 kts 90°
2026-04-23 22:16 41.08501 -152.68498 35342 ft 521 kts 89°
2026-04-23 22:16 41.08305 -152.58933 35343 ft 519 kts 89°
2026-04-23 22:17 41.08100 -152.49287 35346 ft 520 kts 89°
2026-04-23 22:17 41.07888 -152.39694 35339 ft 520 kts 89°
2026-04-23 22:18 41.07669 -152.30158 35336 ft 520 kts 90°
2026-04-23 22:18 41.07442 -152.20586 35344 ft 519 kts 90°
2026-04-23 22:19 41.07206 -152.10996 35343 ft 519 kts 90°
2026-04-23 22:19 41.06963 -152.01450 35345 ft 517 kts 89°
2026-04-23 22:20 41.06714 -151.91922 35350 ft 517 kts 89°
2026-04-23 22:20 41.06455 -151.82379 35351 ft 518 kts 89°
2026-04-23 22:21 41.06188 -151.72807 35356 ft 518 kts 89°
2026-04-23 22:21 41.05915 -151.63304 35363 ft 516 kts 89°
2026-04-23 22:22 41.05634 -151.53804 35370 ft 517 kts 89°
2026-04-23 22:22 41.05344 -151.44261 35371 ft 516 kts 89°
2026-04-23 22:23 41.05047 -151.34726 35379 ft 516 kts 90°
2026-04-23 22:23 41.04741 -151.25186 35377 ft 516 kts 89°
2026-04-23 22:24 41.04430 -151.15715 35378 ft 514 kts 89°
2026-04-23 22:24 41.04112 -151.06279 35384 ft 514 kts 89°
2026-04-23 22:25 41.03785 -150.96793 35387 ft 514 kts 89°
2026-04-23 22:25 41.03449 -150.87283 35394 ft 515 kts 89°
2026-04-23 22:26 41.03109 -150.77858 35393 ft 514 kts 89°
2026-04-23 22:26 41.02759 -150.68413 35393 ft 513 kts 89°
2026-04-23 22:27 41.02403 -150.58984 35399 ft 511 kts 89°
2026-04-23 22:27 41.02040 -150.49574 35401 ft 511 kts 89°
2026-04-23 22:28 41.01667 -150.40106 35401 ft 512 kts 89°
2026-04-23 22:28 41.01289 -150.30719 35391 ft 511 kts 89°
2026-04-23 22:29 41.00905 -150.21361 35399 ft 510 kts 89°
2026-04-23 22:29 41.00510 -150.11929 35403 ft 509 kts 89°
2026-04-23 22:30 41.00110 -150.02559 35407 ft 509 kts 89°
2026-04-23 22:30 40.99614 -149.93221 35411 ft 510 kts 90°
2026-04-23 22:31 40.99088 -149.83900 35413 ft 507 kts 90°
2026-04-23 22:31 40.98552 -149.74556 35415 ft 507 kts 90°
2026-04-23 22:32 40.98013 -149.65295 35416 ft 506 kts 90°
2026-04-23 22:32 40.97462 -149.55972 35415 ft 505 kts 90°
2026-04-23 22:33 40.96899 -149.46580 35423 ft 506 kts 89°
2026-04-23 22:33 40.96337 -149.37332 35429 ft 505 kts 89°
2026-04-23 22:34 40.95768 -149.28093 35427 ft 505 kts 90°
2026-04-23 22:34 40.95185 -149.18750 35428 ft 503 kts 90°
2026-04-23 22:35 40.94603 -149.09551 35435 ft 503 kts 90°
2026-04-23 22:35 40.94014 -149.00340 35436 ft 503 kts 90°
2026-04-23 22:36 40.93415 -148.91095 35438 ft 503 kts 90°
2026-04-23 22:36 40.92805 -148.81813 35438 ft 501 kts 89°
2026-04-23 22:37 40.92194 -148.72607 35435 ft 502 kts 89°
2026-04-23 22:37 40.91577 -148.63435 35437 ft 501 kts 89°
2026-04-23 22:38 40.90953 -148.54271 35437 ft 501 kts 89°
2026-04-23 22:38 40.90324 -148.45142 35438 ft 499 kts 89°
2026-04-23 22:39 40.89685 -148.35963 35428 ft 499 kts 89°
2026-04-23 22:39 40.89043 -148.26849 35429 ft 499 kts 90°
2026-04-23 22:40 40.88391 -148.17709 35429 ft 497 kts 89°
2026-04-23 22:41 40.87398 -148.03960 35429 ft 497 kts 89°
2026-04-23 22:41 40.86734 -147.94904 35435 ft 497 kts 89°
2026-04-23 22:42 40.86061 -147.85817 35440 ft 497 kts 89°
2026-04-23 22:42 40.85378 -147.76697 35435 ft 497 kts 89°
2026-04-23 22:43 40.84686 -147.67557 35430 ft 496 kts 89°
2026-04-23 22:43 40.83996 -147.58530 35428 ft 495 kts 89°
2026-04-23 22:44 40.83297 -147.49480 35432 ft 495 kts 89°
2026-04-23 22:44 40.82593 -147.40469 35433 ft 494 kts 89°
2026-04-23 22:45 40.81872 -147.31326 35433 ft 495 kts 89°
2026-04-23 22:45 40.81151 -147.22275 35432 ft 494 kts 89°
2026-04-23 22:46 40.80427 -147.13271 35429 ft 495 kts 90°
2026-04-23 22:46 40.79688 -147.04178 35423 ft 495 kts 90°
2026-04-23 22:47 40.78947 -146.95169 35423 ft 495 kts 89°
2026-04-23 22:47 40.78198 -146.86127 35421 ft 493 kts 89°
2026-04-23 22:47 40.77824 -146.81657 35267 ft 491 kts 89°
2026-04-23 22:48 40.77451 -146.77190 35409 ft 493 kts 89°
2026-04-23 22:48 40.76681 -146.68076 35426 ft 492 kts 89°
2026-04-23 22:49 40.75915 -146.59099 35428 ft 493 kts 89°
2026-04-23 22:49 40.75138 -146.50070 35429 ft 493 kts 89°
2026-04-23 22:50 40.74359 -146.41097 35432 ft 492 kts 89°
2026-04-23 22:50 40.73570 -146.32092 35435 ft 494 kts 90°
2026-04-23 22:51 40.72776 -146.23123 35438 ft 493 kts 90°
2026-04-23 22:51 40.71975 -146.14154 35437 ft 490 kts 90°
2026-04-23 22:52 40.71166 -146.05162 35439 ft 490 kts 90°
2026-04-23 22:52 40.70352 -145.96196 35444 ft 491 kts 90°
2026-04-23 22:53 40.69537 -145.87302 35443 ft 490 kts 90°
2026-04-23 22:53 40.68711 -145.78366 35449 ft 491 kts 90°
2026-04-23 22:54 40.67874 -145.69395 35445 ft 491 kts 90°
2026-04-23 22:54 40.67033 -145.60439 35441 ft 491 kts 90°
2026-04-23 22:55 40.66189 -145.51541 35441 ft 490 kts 90°
2026-04-23 22:55 40.65334 -145.42606 35437 ft 489 kts 90°
2026-04-23 22:56 40.64478 -145.33716 35442 ft 490 kts 91°
2026-04-23 22:56 40.63615 -145.24844 35447 ft 488 kts 91°
2026-04-23 22:57 40.62749 -145.15999 35451 ft 490 kts 91°
2026-04-23 22:57 40.61863 -145.07036 35448 ft 488 kts 90°
2026-04-23 22:58 40.60981 -144.98177 35448 ft 488 kts 91°
2026-04-23 22:58 40.60091 -144.89307 35451 ft 489 kts 91°
2026-04-23 22:59 40.59188 -144.80383 35444 ft 488 kts 91°
2026-04-23 22:59 40.58286 -144.71536 35437 ft 487 kts 91°
2026-04-23 23:00 40.57379 -144.62703 35433 ft 488 kts 91°
2026-04-23 23:00 40.56464 -144.53857 35429 ft 489 kts 91°
2026-04-23 23:01 40.55534 -144.44952 35432 ft 489 kts 91°
2026-04-23 23:01 40.54604 -144.36104 35429 ft 488 kts 91°
2026-04-23 23:02 40.53667 -144.27258 35432 ft 488 kts 92°
2026-04-23 23:02 40.52726 -144.18434 35437 ft 487 kts 92°
2026-04-23 23:03 40.51772 -144.09558 35435 ft 488 kts 92°
2026-04-23 23:03 40.50819 -144.00760 35439 ft 487 kts 92°
2026-04-23 23:04 40.49858 -143.91950 35444 ft 487 kts 92°
2026-04-23 23:04 40.48895 -143.83182 35450 ft 488 kts 93°
2026-04-23 23:05 40.47912 -143.74303 35450 ft 487 kts 92°
2026-04-23 23:05 40.46928 -143.65474 35451 ft 488 kts 93°
2026-04-23 23:06 40.45928 -143.56558 35454 ft 489 kts 93°
2026-04-23 23:06 40.44928 -143.47720 35460 ft 488 kts 93°
2026-04-23 23:07 40.43924 -143.38902 35449 ft 488 kts 93°
2026-04-23 23:07 40.42910 -143.30049 35449 ft 490 kts 94°
2026-04-23 23:08 40.41885 -143.21178 35443 ft 489 kts 94°
2026-04-23 23:08 40.40854 -143.12308 35441 ft 488 kts 94°
2026-04-23 23:09 40.39828 -143.03540 35441 ft 489 kts 94°
2026-04-23 23:09 40.38790 -142.94730 35439 ft 488 kts 95°
2026-04-23 23:10 40.37735 -142.85834 35441 ft 489 kts 95°
2026-04-23 23:10 40.36679 -142.76993 35432 ft 490 kts 95°
2026-04-23 23:11 40.35617 -142.68158 35436 ft 491 kts 95°
2026-04-23 23:11 40.34545 -142.59302 35432 ft 490 kts 95°
2026-04-23 23:12 40.33464 -142.50430 35431 ft 490 kts 95°
2026-04-23 23:12 40.32384 -142.41620 35433 ft 491 kts 95°
2026-04-23 23:13 40.31301 -142.32846 35441 ft 492 kts 96°
2026-04-23 23:13 40.30191 -142.23906 35450 ft 492 kts 96°
2026-04-23 23:14 40.29087 -142.15082 35445 ft 493 kts 96°
2026-04-23 23:14 40.27977 -142.06256 35449 ft 492 kts 96°
2026-04-23 23:15 40.26854 -141.97391 35448 ft 494 kts 96°
2026-04-23 23:15 40.25719 -141.88484 35451 ft 494 kts 96°
2026-04-23 23:16 40.24575 -141.79572 35450 ft 493 kts 96°
2026-04-23 23:16 40.23441 -141.70781 35450 ft 493 kts 96°
2026-04-23 23:17 40.22281 -141.61848 35446 ft 494 kts 96°
2026-04-23 23:17 40.21124 -141.52989 35446 ft 495 kts 96°
2026-04-23 23:18 40.19960 -141.44138 35446 ft 495 kts 96°
2026-04-23 23:18 40.18780 -141.35223 35431 ft 495 kts 96°
2026-04-23 23:19 40.17592 -141.26288 35428 ft 497 kts 97°
2026-04-23 23:19 40.16392 -141.17337 35431 ft 498 kts 96°
2026-04-23 23:20 40.15197 -141.08467 35428 ft 498 kts 97°
2026-04-23 23:20 40.13977 -140.99464 35430 ft 498 kts 96°
2026-04-23 23:21 40.12759 -140.90536 35429 ft 499 kts 97°
2026-04-23 23:21 40.11540 -140.81647 35433 ft 499 kts 97°
2026-04-23 23:22 40.10301 -140.72670 35433 ft 499 kts 97°
2026-04-23 23:22 40.09063 -140.63757 35432 ft 498 kts 97°
2026-04-23 23:23 40.07815 -140.54816 35428 ft 499 kts 97°
2026-04-23 23:23 40.06562 -140.45892 35432 ft 498 kts 97°
2026-04-23 23:24 40.05301 -140.36974 35426 ft 499 kts 97°
2026-04-23 23:24 40.04044 -140.28124 35430 ft 499 kts 98°
2026-04-23 23:25 40.02756 -140.19115 35446 ft 500 kts 98°
2026-04-23 23:25 40.01482 -140.10246 35442 ft 499 kts 98°
2026-04-23 23:26 40.00193 -140.01344 35445 ft 499 kts 99°
2026-04-23 23:26 39.98846 -139.92464 35445 ft 499 kts 99°
2026-04-23 23:27 39.97480 -139.83545 35449 ft 499 kts 99°
2026-04-23 23:27 39.96115 -139.74696 35454 ft 500 kts 99°
2026-04-23 23:28 39.94740 -139.65822 35450 ft 500 kts 99°
2026-04-23 23:28 39.93340 -139.56841 35439 ft 500 kts 100°
2026-04-23 23:29 39.91953 -139.47987 35443 ft 500 kts 100°
2026-04-23 23:29 39.90547 -139.39066 35449 ft 500 kts 100°
2026-04-23 23:30 39.89148 -139.30231 35425 ft 499 kts 101°
2026-04-23 23:30 39.87732 -139.21332 35423 ft 500 kts 101°
2026-04-23 23:31 39.86310 -139.12453 35424 ft 500 kts 101°
2026-04-23 23:31 39.84886 -139.03597 35423 ft 499 kts 101°
2026-04-23 23:32 39.83460 -138.94777 35424 ft 499 kts 101°
2026-04-23 23:32 39.82005 -138.85825 35421 ft 501 kts 101°
2026-04-23 23:33 39.80571 -138.77048 35427 ft 499 kts 101°
2026-04-23 23:33 39.79118 -138.68198 35419 ft 501 kts 101°
2026-04-23 23:34 39.77642 -138.59247 35424 ft 500 kts 101°
2026-04-23 23:34 39.76178 -138.50423 35419 ft 500 kts 101°
2026-04-23 23:35 39.74701 -138.41559 35420 ft 499 kts 102°
2026-04-23 23:35 39.73214 -138.32678 35421 ft 501 kts 102°
2026-04-23 23:36 39.71729 -138.23862 35404 ft 500 kts 102°
2026-04-23 23:36 39.70242 -138.15071 35421 ft 500 kts 102°
2026-04-23 23:37 39.68728 -138.06163 35418 ft 501 kts 103°
2026-04-23 23:37 39.67220 -137.97336 35419 ft 500 kts 103°
2026-04-23 23:38 39.65706 -137.88516 35405 ft 499 kts 103°
2026-04-23 23:38 39.64190 -137.79729 35424 ft 501 kts 103°
2026-04-23 23:39 39.62661 -137.70903 35404 ft 499 kts 103°
2026-04-23 23:39 39.61125 -137.62087 35404 ft 499 kts 103°
2026-04-23 23:40 39.59591 -137.53316 35391 ft 500 kts 103°
2026-04-23 23:40 39.58035 -137.44466 35402 ft 499 kts 103°
2026-04-23 23:41 39.56480 -137.35663 35406 ft 500 kts 103°
2026-04-23 23:41 39.54925 -137.26903 35399 ft 498 kts 103°
2026-04-23 23:42 39.53369 -137.18175 35395 ft 499 kts 103°
2026-04-23 23:42 39.51790 -137.09363 35401 ft 499 kts 103°
2026-04-23 23:43 39.50207 -137.00568 35398 ft 499 kts 103°
2026-04-23 23:43 39.48617 -136.91775 35402 ft 500 kts 103°
2026-04-23 23:44 39.47023 -136.82997 35399 ft 500 kts 103°
2026-04-23 23:44 39.45417 -136.74199 35393 ft 499 kts 103°
2026-04-23 23:45 39.43816 -136.65468 35396 ft 499 kts 103°
2026-04-23 23:45 39.42211 -136.56751 35390 ft 498 kts 103°
2026-04-23 23:46 39.40585 -136.47958 35399 ft 499 kts 103°
2026-04-23 23:46 39.38969 -136.39264 35390 ft 498 kts 103°
2026-04-23 23:47 39.37341 -136.30545 35397 ft 499 kts 104°
2026-04-23 23:47 39.35706 -136.21822 35392 ft 499 kts 104°
2026-04-23 23:48 39.34057 -136.13068 35376 ft 499 kts 104°
2026-04-23 23:48 39.32404 -136.04330 35383 ft 500 kts 104°
2026-04-23 23:49 39.29926 -135.91301 35377 ft 498 kts 104°
2026-04-23 23:49 39.28258 -135.82576 35364 ft 497 kts 104°
2026-04-23 23:50 39.26590 -135.73892 35368 ft 497 kts 104°
2026-04-23 23:50 39.24898 -135.65124 35363 ft 497 kts 104°
2026-04-23 23:51 39.23216 -135.56445 35364 ft 497 kts 104°
2026-04-23 23:51 39.21515 -135.47705 35372 ft 499 kts 104°
2026-04-23 23:52 39.19829 -135.39076 35358 ft 499 kts 104°
2026-04-23 23:52 39.18124 -135.30389 35354 ft 498 kts 105°
2026-04-23 23:53 39.16416 -135.21725 35358 ft 497 kts 105°
2026-04-23 23:53 39.14703 -135.13068 35361 ft 497 kts 105°
2026-04-23 23:54 39.12987 -135.04440 35369 ft 497 kts 105°
2026-04-23 23:54 39.11255 -134.95764 35364 ft 497 kts 105°
2026-04-23 23:55 39.09529 -134.87151 35362 ft 497 kts 105°
2026-04-23 23:55 39.07792 -134.78523 35362 ft 497 kts 105°
2026-04-23 23:56 39.06044 -134.69873 35359 ft 497 kts 105°
2026-04-23 23:56 39.04290 -134.61234 35353 ft 498 kts 105°
2026-04-23 23:57 39.02540 -134.52646 35354 ft 498 kts 105°
2026-04-23 23:57 39.00782 -134.44055 35353 ft 497 kts 105°
2026-04-23 23:58 38.98993 -134.35350 35355 ft 497 kts 105°
2026-04-23 23:58 38.97223 -134.26769 35350 ft 498 kts 106°
2026-04-23 23:59 38.95439 -134.18159 35344 ft 499 kts 106°
2026-04-23 23:59 38.93631 -134.09467 35344 ft 499 kts 107°
2026-04-24 00:00 38.91840 -134.00886 35343 ft 499 kts 107°
2026-04-24 00:00 38.90035 -133.92278 35342 ft 499 kts 107°
2026-04-24 00:01 38.88218 -133.83650 35344 ft 499 kts 107°
2026-04-24 00:01 38.86391 -133.75005 35330 ft 498 kts 107°
2026-04-24 00:02 38.84570 -133.66425 35324 ft 497 kts 107°
2026-04-24 00:02 38.82732 -133.57800 35339 ft 499 kts 107°
2026-04-24 00:03 38.80900 -133.49232 35342 ft 499 kts 107°
2026-04-24 00:03 38.79058 -133.40654 35343 ft 499 kts 107°
2026-04-24 00:04 38.77194 -133.32010 35346 ft 499 kts 108°
2026-04-24 00:04 38.75334 -133.23416 35339 ft 499 kts 107°
2026-04-24 00:05 38.73479 -133.14877 35338 ft 498 kts 107°
2026-04-24 00:05 38.71596 -133.06244 35340 ft 499 kts 107°
2026-04-24 00:06 38.69724 -132.97696 35336 ft 499 kts 107°
2026-04-24 00:06 38.67826 -132.89062 35324 ft 499 kts 107°
2026-04-24 00:07 38.65944 -132.80531 35318 ft 499 kts 107°
2026-04-24 00:07 38.64046 -132.71962 35316 ft 497 kts 107°
2026-04-24 00:08 38.62147 -132.63426 35318 ft 497 kts 107°
2026-04-24 00:08 38.60255 -132.54947 35315 ft 497 kts 107°
2026-04-24 00:09 38.58344 -132.46419 35315 ft 497 kts 107°
2026-04-24 00:09 38.56412 -132.37826 35317 ft 497 kts 107°
2026-04-24 00:10 38.54499 -132.29350 35301 ft 497 kts 108°
2026-04-24 00:10 38.52573 -132.20851 35300 ft 498 kts 108°
2026-04-24 00:11 38.50639 -132.12347 35294 ft 498 kts 108°
2026-04-24 00:11 38.48700 -132.03853 35287 ft 497 kts 108°
2026-04-24 00:12 38.46748 -131.95334 35295 ft 496 kts 108°
2026-04-24 00:12 38.44789 -131.86812 35291 ft 496 kts 108°
2026-04-24 00:13 38.42844 -131.78389 35290 ft 497 kts 108°
2026-04-24 00:13 38.40887 -131.69939 35289 ft 497 kts 108°
2026-04-24 00:14 38.38911 -131.61440 35285 ft 496 kts 108°
2026-04-24 00:14 38.36934 -131.52966 35287 ft 497 kts 108°
2026-04-24 00:15 38.34948 -131.44485 35285 ft 496 kts 108°
2026-04-24 00:15 38.32964 -131.36044 35284 ft 498 kts 108°
2026-04-24 00:16 38.30987 -131.27664 35279 ft 496 kts 109°
2026-04-24 00:16 38.28973 -131.19154 35271 ft 496 kts 109°
2026-04-24 00:17 38.26977 -131.10753 35267 ft 496 kts 109°
2026-04-24 00:17 38.24957 -131.02283 35267 ft 496 kts 109°
2026-04-24 00:18 38.22932 -130.93819 35264 ft 495 kts 109°
2026-04-24 00:18 38.20911 -130.85403 35264 ft 495 kts 109°
2026-04-24 00:19 38.18898 -130.77048 35264 ft 495 kts 109°
2026-04-24 00:19 38.16876 -130.68687 35263 ft 495 kts 109°
2026-04-24 00:20 38.14825 -130.60234 35265 ft 496 kts 109°
2026-04-24 00:20 38.12791 -130.51880 35261 ft 495 kts 109°
2026-04-24 00:21 38.10748 -130.43521 35265 ft 496 kts 109°
2026-04-24 00:21 38.08696 -130.35152 35264 ft 495 kts 109°
2026-04-24 00:22 38.06619 -130.26710 35260 ft 495 kts 110°
2026-04-24 00:22 38.04561 -130.18375 35259 ft 495 kts 110°
2026-04-24 00:23 38.02493 -130.10025 35262 ft 495 kts 110°
2026-04-24 00:23 38.00415 -130.01669 35260 ft 493 kts 110°
2026-04-24 00:24 37.98731 -129.93164 35254 ft 497 kts 102°
2026-04-24 00:24 37.97525 -129.84552 35242 ft 498 kts 103°
2026-04-24 00:25 37.96276 -129.75970 35240 ft 498 kts 103°
2026-04-24 00:25 37.94973 -129.67253 35239 ft 498 kts 103°
2026-04-24 00:26 37.93665 -129.58658 35240 ft 498 kts 103°
2026-04-24 00:26 37.92332 -129.49988 35239 ft 490 kts 103°
2026-04-24 00:27 37.91033 -129.41608 35241 ft 486 kts 103°
2026-04-24 00:27 37.89720 -129.33208 35238 ft 486 kts 103°
2026-04-24 00:28 37.88396 -129.24773 35238 ft 485 kts 103°
2026-04-24 00:28 37.87060 -129.16322 35240 ft 486 kts 103°
2026-04-24 00:29 37.85735 -129.07974 35239 ft 488 kts 103°
2026-04-24 00:29 37.84378 -128.99468 35238 ft 488 kts 104°
2026-04-24 00:30 37.83034 -128.91087 35237 ft 487 kts 104°
2026-04-24 00:30 37.81678 -128.82669 35237 ft 487 kts 103°
2026-04-24 00:31 37.80324 -128.74306 35227 ft 487 kts 104°
2026-04-24 00:31 37.78951 -128.65868 35223 ft 489 kts 103°
2026-04-24 00:32 37.77523 -128.57127 35222 ft 489 kts 103°
2026-04-24 00:32 37.76148 -128.48759 35222 ft 490 kts 104°
2026-04-24 00:33 37.74757 -128.40329 35221 ft 489 kts 104°
2026-04-24 00:33 37.73363 -128.31923 35218 ft 490 kts 104°
2026-04-24 00:34 37.71958 -128.23485 35208 ft 490 kts 104°
2026-04-24 00:34 37.70544 -128.15034 35203 ft 491 kts 104°
2026-04-24 00:35 37.69133 -128.06639 35201 ft 490 kts 105°
2026-04-24 00:35 37.67708 -127.98206 35202 ft 491 kts 104°
2026-04-24 00:36 37.66270 -127.89732 35202 ft 492 kts 104°
2026-04-24 00:36 37.64823 -127.81240 35198 ft 494 kts 104°
2026-04-24 00:37 37.63375 -127.72782 35200 ft 494 kts 104°
2026-04-24 00:37 37.61905 -127.64237 35194 ft 494 kts 104°
2026-04-24 00:38 37.60448 -127.55808 35199 ft 495 kts 104°
2026-04-24 00:38 37.58960 -127.47235 35196 ft 495 kts 105°
2026-04-24 00:39 37.57478 -127.38737 35198 ft 497 kts 105°
2026-04-24 00:39 37.55994 -127.30262 35188 ft 495 kts 105°
2026-04-24 00:40 37.54494 -127.21742 35190 ft 497 kts 105°
2026-04-24 00:40 37.52990 -127.13229 35189 ft 498 kts 105°
2026-04-24 00:41 37.51479 -127.04719 35191 ft 498 kts 105°
2026-04-24 00:41 37.50417 -126.96127 35190 ft 500 kts 95°
2026-04-24 00:42 37.50056 -126.87399 35186 ft 503 kts 95°
2026-04-24 00:42 37.49689 -126.78636 35185 ft 501 kts 95°
2026-04-24 00:43 37.49307 -126.69883 35186 ft 503 kts 95°
2026-04-24 00:43 37.48914 -126.61102 35182 ft 502 kts 95°
2026-04-24 00:44 37.48506 -126.52225 35182 ft 503 kts 95°
2026-04-24 00:44 37.48093 -126.43410 35182 ft 504 kts 95°
2026-04-24 00:45 37.47677 -126.34660 35180 ft 503 kts 95°
2026-04-24 00:45 37.47249 -126.25826 35169 ft 503 kts 95°
2026-04-24 00:46 37.46858 -126.17856 35166 ft 505 kts 95°
2026-04-24 00:46 37.46416 -126.09007 35158 ft 506 kts 95°
2026-04-24 00:47 37.45971 -126.00204 35159 ft 504 kts 95°
2026-04-24 00:47 37.45513 -125.91299 35152 ft 505 kts 95°
2026-04-24 00:48 37.45067 -125.82744 35156 ft 505 kts 95°
2026-04-24 00:48 37.44599 -125.73889 35155 ft 506 kts 95°
2026-04-24 00:49 37.44122 -125.64993 35153 ft 507 kts 95°
2026-04-24 00:49 37.43642 -125.56165 35156 ft 507 kts 95°
2026-04-24 00:50 37.43151 -125.47264 35157 ft 508 kts 95°
2026-04-24 00:50 37.42655 -125.38380 35144 ft 507 kts 95°
2026-04-24 00:51 37.42153 -125.29523 35145 ft 508 kts 96°
2026-04-24 00:51 37.41647 -125.20715 35148 ft 508 kts 96°
2026-04-24 00:52 37.41132 -125.11854 35145 ft 509 kts 96°
2026-04-24 00:52 37.40622 -125.03180 35135 ft 509 kts 96°
2026-04-24 00:53 37.40093 -124.94309 35126 ft 509 kts 96°
2026-04-24 00:53 37.39556 -124.85420 35129 ft 509 kts 96°
2026-04-24 00:54 37.39011 -124.76517 35124 ft 510 kts 96°
2026-04-24 00:54 37.38464 -124.67682 35121 ft 511 kts 96°
2026-04-24 00:55 37.37903 -124.58723 35124 ft 511 kts 96°
2026-04-24 00:55 37.37336 -124.49785 35121 ft 513 kts 96°
2026-04-24 00:56 37.36764 -124.40870 35120 ft 512 kts 96°
2026-04-24 00:56 37.36177 -124.31847 35108 ft 513 kts 96°
2026-04-24 00:57 37.35592 -124.22930 35107 ft 513 kts 96°
2026-04-24 00:58 37.34701 -124.09573 35108 ft 513 kts 96°
2026-04-24 00:58 37.34098 -124.00664 35101 ft 515 kts 97°
2026-04-24 00:59 37.33488 -123.91734 35105 ft 515 kts 96°
2026-04-24 00:59 37.32864 -123.82722 35100 ft 516 kts 96°
2026-04-24 01:00 37.32235 -123.73715 35098 ft 515 kts 96°
2026-04-24 01:00 37.31599 -123.64723 35097 ft 516 kts 96°
2026-04-24 01:01 37.30958 -123.55750 35095 ft 517 kts 96°
2026-04-24 01:01 37.30305 -123.46712 35097 ft 517 kts 96°
2026-04-24 01:02 37.29649 -123.37723 35345 ft 515 kts 96°
2026-04-24 01:02 37.29321 -123.33258 36090 ft 503 kts 97°
2026-04-24 01:02 37.29006 -123.28989 36876 ft 494 kts 97°
2026-04-24 01:02 37.28685 -123.24678 37127 ft 497 kts 97°
2026-04-24 01:03 37.28361 -123.20343 36806 ft 510 kts 97°
2026-04-24 01:03 37.27683 -123.11349 37064 ft 516 kts 97°
2026-04-24 01:04 37.26997 -123.02326 37074 ft 518 kts 97°
2026-04-24 01:04 37.26252 -122.93272 37059 ft 518 kts 101°
2026-04-24 01:05 37.24104 -122.84716 37056 ft 512 kts 120°
2026-04-24 01:05 37.20381 -122.77120 37052 ft 509 kts 128°
2026-04-24 01:06 37.16408 -122.69762 37050 ft 508 kts 128°
2026-04-24 01:06 37.12376 -122.62417 37049 ft 508 kts 128°
2026-04-24 01:07 37.08604 -122.55608 37051 ft 509 kts 129°
2026-04-24 01:07 37.04534 -122.48304 37043 ft 508 kts 129°
2026-04-24 01:08 37.00428 -122.40970 37041 ft 509 kts 129°
2026-04-24 01:08 36.96353 -122.33714 37033 ft 509 kts 129°
2026-04-24 01:09 36.92268 -122.26463 37029 ft 510 kts 130°
2026-04-24 01:09 36.88176 -122.19215 37023 ft 507 kts 129°
2026-04-24 01:10 36.84060 -122.11945 37024 ft 510 kts 130°
2026-04-24 01:10 36.79956 -122.04711 37032 ft 510 kts 129°
2026-04-24 01:11 36.75831 -121.97456 37038 ft 510 kts 129°
2026-04-24 01:11 36.72375 -121.91391 37043 ft 511 kts 129°
2026-04-24 01:12 36.67569 -121.82973 37045 ft 509 kts 129°
2026-04-24 01:12 36.63445 -121.75768 37043 ft 511 kts 129°
2026-04-24 01:13 36.59991 -121.69744 37048 ft 511 kts 130°
2026-04-24 01:13 36.55121 -121.61268 37051 ft 510 kts 130°
2026-04-24 01:14 36.50993 -121.54102 37045 ft 511 kts 130°
2026-04-24 01:14 36.46835 -121.46898 37037 ft 512 kts 129°
2026-04-24 01:15 36.42942 -121.40168 37035 ft 512 kts 130°
2026-04-24 01:15 36.38781 -121.32988 37021 ft 511 kts 130°
2026-04-24 01:16 36.34636 -121.25848 37019 ft 510 kts 130°
2026-04-24 01:16 36.30460 -121.18675 37019 ft 511 kts 130°
2026-04-24 01:17 36.26285 -121.11514 37005 ft 512 kts 131°
2026-04-24 01:17 36.22090 -121.04336 37000 ft 512 kts 130°
2026-04-24 01:18 36.17921 -120.97218 36995 ft 512 kts 130°
2026-04-24 01:18 36.13714 -120.90050 37002 ft 512 kts 130°
2026-04-24 01:19 36.09496 -120.82877 37008 ft 512 kts 130°
2026-04-24 01:19 36.05296 -120.75750 37007 ft 512 kts 131°
2026-04-24 01:20 36.01096 -120.68638 37009 ft 513 kts 131°
2026-04-24 01:20 35.96874 -120.61502 37016 ft 513 kts 131°
2026-04-24 01:21 35.92683 -120.54435 37021 ft 514 kts 131°
2026-04-24 01:21 35.88425 -120.47268 37028 ft 513 kts 131°
2026-04-24 01:22 35.84182 -120.40143 37016 ft 512 kts 130°
2026-04-24 01:22 35.79962 -120.33070 37005 ft 513 kts 131°
2026-04-24 01:23 35.75706 -120.25951 37008 ft 513 kts 131°
2026-04-24 01:23 35.71467 -120.18875 37006 ft 512 kts 131°
2026-04-24 01:24 35.66976 -120.12141 37002 ft 504 kts 143°
2026-04-24 01:24 35.61430 -120.07116 37013 ft 494 kts 154°
2026-04-24 01:25 35.55541 -120.02559 37014 ft 494 kts 155°
2026-04-24 01:25 35.49705 -119.98106 37021 ft 494 kts 155°
2026-04-24 01:26 35.43837 -119.93664 37022 ft 494 kts 155°
2026-04-24 01:26 35.38004 -119.89271 37019 ft 493 kts 155°
2026-04-24 01:27 35.32193 -119.84907 36271 ft 490 kts 155°
2026-04-24 01:27 35.29259 -119.82689 35454 ft 495 kts 152°
2026-04-24 01:27 35.26409 -119.80148 34642 ft 503 kts 149°
2026-04-24 01:27 35.23622 -119.77541 33723 ft 508 kts 148°
2026-04-24 01:28 35.20813 -119.74906 32752 ft 511 kts 148°
2026-04-24 01:28 35.18009 -119.72280 31841 ft 514 kts 147°
2026-04-24 01:28 35.15151 -119.69607 30917 ft 516 kts 147°
2026-04-24 01:28 35.12287 -119.66932 30277 ft 511 kts 147°
2026-04-24 01:29 35.09498 -119.64328 29803 ft 504 kts 147°
2026-04-24 01:29 35.06721 -119.61739 29260 ft 499 kts 147°
2026-04-24 01:29 35.03968 -119.59176 28688 ft 495 kts 146°
2026-04-24 01:29 35.01275 -119.56673 28113 ft 491 kts 146°
2026-04-24 01:30 34.98514 -119.54109 27528 ft 487 kts 146°
2026-04-24 01:30 34.95841 -119.51630 26953 ft 483 kts 146°
2026-04-24 01:30 34.93157 -119.49142 26364 ft 480 kts 146°
2026-04-24 01:30 34.90510 -119.46697 25792 ft 476 kts 146°
2026-04-24 01:31 34.87834 -119.44292 25304 ft 469 kts 147°
2026-04-24 01:31 34.85239 -119.41973 24854 ft 457 kts 147°
2026-04-24 01:31 34.82715 -119.39719 24421 ft 446 kts 147°
2026-04-24 01:31 34.80201 -119.37473 23965 ft 435 kts 147°
2026-04-24 01:32 34.77746 -119.35284 23579 ft 428 kts 147°
2026-04-24 01:32 34.75338 -119.33137 23112 ft 424 kts 148°
2026-04-24 01:32 34.72951 -119.31031 22657 ft 420 kts 148°
2026-04-24 01:32 34.70560 -119.28945 22186 ft 416 kts 148°
2026-04-24 01:33 34.68225 -119.26910 21728 ft 413 kts 148°
2026-04-24 01:33 34.65871 -119.24857 21270 ft 410 kts 148°
2026-04-24 01:33 34.63570 -119.22859 20831 ft 406 kts 148°
2026-04-24 01:33 34.61278 -119.20885 20415 ft 402 kts 148°
2026-04-24 01:34 34.59037 -119.18955 20002 ft 399 kts 148°
2026-04-24 01:34 34.56778 -119.17011 19586 ft 397 kts 148°
2026-04-24 01:34 34.54523 -119.15045 19164 ft 396 kts 147°
2026-04-24 01:34 34.52300 -119.13071 18746 ft 394 kts 147°
2026-04-24 01:35 34.50119 -119.11138 18337 ft 391 kts 147°
2026-04-24 01:35 34.47916 -119.09187 17920 ft 389 kts 147°
2026-04-24 01:35 34.45748 -119.07267 17544 ft 386 kts 147°
2026-04-24 01:35 34.43581 -119.05353 17184 ft 383 kts 147°
2026-04-24 01:36 34.41442 -119.03496 16794 ft 382 kts 148°
2026-04-24 01:36 34.39274 -119.01620 16392 ft 380 kts 148°
2026-04-24 01:36 34.37135 -118.99770 15992 ft 378 kts 148°
2026-04-24 01:36 34.34988 -118.97914 15592 ft 375 kts 147°
2026-04-24 01:37 34.32885 -118.96067 15197 ft 374 kts 146°
2026-04-24 01:37 34.30825 -118.94192 14804 ft 373 kts 146°
2026-04-24 01:37 34.28755 -118.92307 14404 ft 370 kts 146°
2026-04-24 01:37 34.26699 -118.90436 14010 ft 368 kts 146°
2026-04-24 01:38 34.24674 -118.88594 13625 ft 366 kts 145°
2026-04-24 01:38 34.22665 -118.86745 13219 ft 361 kts 145°
2026-04-24 01:38 34.20678 -118.84914 12832 ft 351 kts 145°
2026-04-24 01:38 34.18765 -118.83153 12500 ft 337 kts 145°
2026-04-24 01:39 34.16948 -118.81483 12230 ft 328 kts 145°
2026-04-24 01:39 34.15165 -118.79756 11885 ft 326 kts 140°
2026-04-24 01:39 34.13522 -118.77920 11622 ft 321 kts 139°
2026-04-24 01:39 34.11880 -118.76080 11376 ft 317 kts 139°
2026-04-24 01:40 34.10267 -118.74302 11093 ft 314 kts 139°
2026-04-24 01:40 34.08670 -118.72559 10800 ft 311 kts 140°
2026-04-24 01:40 34.07069 -118.70819 10550 ft 310 kts 140°
2026-04-24 01:40 34.05474 -118.69087 10298 ft 307 kts 139°
2026-04-24 01:41 34.03960 -118.67301 10044 ft 303 kts 127°
2026-04-24 01:41 34.03051 -118.65041 9802 ft 298 kts 104°
2026-04-24 01:41 34.02648 -118.62612 9573 ft 293 kts 97°
2026-04-24 01:41 34.02387 -118.60187 9350 ft 290 kts 96°
2026-04-24 01:42 34.02158 -118.57808 9194 ft 289 kts 95°
2026-04-24 01:42 34.01931 -118.55402 9046 ft 288 kts 96°
2026-04-24 01:42 34.01704 -118.52993 8913 ft 287 kts 95°
2026-04-24 01:42 34.01481 -118.50610 8769 ft 286 kts 95°
2026-04-24 01:43 34.01257 -118.48240 8625 ft 284 kts 95°
2026-04-24 01:43 34.00903 -118.45908 8441 ft 281 kts 110°
2026-04-24 01:43 34.00039 -118.43845 8254 ft 274 kts 120°
2026-04-24 01:43 33.99042 -118.41898 8063 ft 269 kts 121°
2026-04-24 01:44 33.98063 -118.40032 7875 ft 263 kts 121°
2026-04-24 01:44 33.97100 -118.38193 7682 ft 258 kts 121°
2026-04-24 01:44 33.96149 -118.36373 7487 ft 253 kts 121°
2026-04-24 01:44 33.95215 -118.34584 7279 ft 249 kts 121°
2026-04-24 01:45 33.94311 -118.32855 7042 ft 246 kts 121°
2026-04-24 01:45 33.93455 -118.31090 6731 ft 244 kts 112°
2026-04-24 01:45 33.92899 -118.29179 6477 ft 240 kts 105°
2026-04-24 01:45 33.92418 -118.27260 6232 ft 236 kts 105°
2026-04-24 01:46 33.91951 -118.25394 5996 ft 234 kts 105°
2026-04-24 01:46 33.91475 -118.23508 5752 ft 232 kts 105°
2026-04-24 01:46 33.91005 -118.21648 5507 ft 231 kts 105°
2026-04-24 01:46 33.90541 -118.19812 5263 ft 231 kts 104°
2026-04-24 01:47 33.90379 -118.17886 4863 ft 234 kts 85°
2026-04-24 01:47 33.90542 -118.15918 4420 ft 240 kts 82°
2026-04-24 01:47 33.90770 -118.13922 3970 ft 246 kts 76°
2026-04-24 01:47 33.91553 -118.12116 3495 ft 248 kts 46°
2026-04-24 01:48 33.92989 -118.11033 3098 ft 246 kts 15°
2026-04-24 01:48 33.94667 -118.10999 2887 ft 237 kts 345°
2026-04-24 01:48 33.96053 -118.11925 2697 ft 228 kts 314°
2026-04-24 01:48 33.96787 -118.13552 2503 ft 220 kts 281°
2026-04-24 01:49 33.96643 -118.15334 2310 ft 213 kts 246°
2026-04-24 01:49 33.96022 -118.16930 2123 ft 207 kts 252°
2026-04-24 01:49 33.95717 -118.18564 1979 ft 194 kts 261°
2026-04-24 01:49 33.95555 -118.20116 1987 ft 184 kts 263°
2026-04-24 01:50 33.95415 -118.21643 1966 ft 182 kts 263°
2026-04-24 01:50 33.95270 -118.23158 1947 ft 183 kts 263°
2026-04-24 01:50 33.95120 -118.24679 1963 ft 181 kts 263°
2026-04-24 01:50 33.94978 -118.26111 1952 ft 162 kts 263°
2026-04-24 01:51 33.94846 -118.27433 1854 ft 157 kts 263°
2026-04-24 01:51 33.94719 -118.28674 1670 ft 145 kts 262°
2026-04-24 01:51 33.94595 -118.29886 1484 ft 145 kts 263°
2026-04-24 01:51 33.94471 -118.31094 1290 ft 144 kts 263°
2026-04-24 01:52 33.94349 -118.32302 1102 ft 145 kts 263°
2026-04-24 01:52 33.94227 -118.33487 913 ft 142 kts 263°
2026-04-24 01:52 33.94106 -118.34671 726 ft 143 kts 263°
2026-04-24 01:52 33.93988 -118.35849 538 ft 141 kts 263°
2026-04-24 01:53 33.93864 -118.37026 321 ft 140 kts 263°
2026-04-24 01:53 33.93747 -118.38187 159 ft 139 kts 263°
2026-04-24 01:53 33.93635 -118.39265 117 ft 110 kts 263°
2026-04-24 01:53 33.93563 -118.39982 127 ft 68 kts 264°
2026-04-24 01:54 33.93536 -118.40407 134 ft 39 kts 275°
2026-04-24 01:54 33.93589 -118.40619 137 ft 15 kts 292°
2026-04-24 01:54 33.93597 -118.40730 139 ft 11 kts 261°
2026-04-24 01:54 33.93588 -118.40796 140 ft 5 kts 261°
2026-04-24 01:55 33.93587 -118.40836 140 ft 4 kts 273°
2026-04-24 01:55 33.93595 -118.40867 140 ft 3 kts 297°
2026-04-24 01:55 33.93613 -118.40885 140 ft 4 kts 338°
2026-04-24 01:55 33.93661 -118.40895 140 ft 9 kts 353°
2026-04-24 01:56 33.93731 -118.40906 141 ft 10 kts 353°
2026-04-24 01:56 33.93779 -118.40942 141 ft 6 kts 289°
2026-04-24 01:56 33.93779 -118.40997 141 ft 6 kts 259°
2026-04-24 01:56 33.93770 -118.41055 141 ft 7 kts 262°
2026-04-24 01:57 33.93766 -118.41115 140 ft 6 kts 284°
2026-04-24 01:57 33.93803 -118.41151 140 ft 7 kts 344°
2026-04-24 01:57 33.93863 -118.41164 139 ft 9 kts 353°
2026-04-24 01:57 33.93937 -118.41174 137 ft 11 kts 354°
2026-04-24 01:58 33.94019 -118.41187 135 ft 8 kts 352°
2026-04-24 01:58 33.94067 -118.41193 136 ft 5 kts
2026-04-24 01:58 33.94089 -118.41174 136 ft 3 kts 65°
2026-04-24 01:58 33.94094 -118.41144 137 ft 4 kts 83°
2026-04-24 01:59 33.94097 -118.41115 138 ft 2 kts 84°
2026-04-24 01:59 33.94099 -118.41093 138 ft 1 kts 83°
2026-04-24 01:59 33.94099 -118.41089 138 ft 0 kts 83°